GFSMA_con_sbcape_036.txt.gz
CAPE
0 0 0 0 0 0 0 0 0 0 0 0 0 0 0 0 0 0 0 0 0 0 11 54 48 4 0 0 0 0 0 11 0 13 0 0 0 0 0 0 0 0 0
0 0 0 0 0 0 0 0 0 0 0 0 0 0 0 0 0 0 0 0 0 4 18 25 27 13 10 0 0 0 19 6 9 42 20 5 0 0 0 0 0 0 0
0 0 0 0 0 0 0 0 0 0 0 0 0 0 0 0 0 0 0 0 0 0 0 0 0 0 0 8 1 3 21 21 22 42 40 24 21 1 0 0 0 0 0
0 0 0 0 0 0 0 0 0 0 0 0 0 0 0 0 0 0 0 0 0 0 0 0 0 0 0 0 0 3 2 6 11 22 36 21 4 0 0 0 0 1 0
0 0 0 0 0 0 0 0 0 0 0 0 0 0 0 0 0 0 0 0 0 0 0 0 0 0 0 0 0 0 0 1 4 8 12 1 4 10 10 4 1 0 5
0 0 0 0 0 0 0 0 0 0 0 0 0 0 0 0 0 0 0 0 0 0 0 0 0 0 0 0 0 0 0 0 0 2 11 11 15 10 7 8 15 14 8
0 0 0 0 0 0 0 0 0 0 0 0 0 0 0 0 0 0 0 0 0 0 0 0 0 0 0 0 0 0 0 0 0 3 7 12 7 3 4 13 20 30 29
0 0 0 0 0 0 0 0 0 0 0 0 0 0 0 0 0 0 0 0 0 0 0 0 0 0 0 0 0 0 0 0 0 0 0 0 3 9 18 28 36 44 54
0 0 0 0 0 0 0 0 0 0 0 0 0 0 0 0 0 0 0 0 0 0 0 0 0 0 0 0 0 0 0 0 0 0 0 5 12 22 27 27 28 35 38
0 0 0 0 0 0 0 0 0 0 0 0 0 0 0 0 0 0 0 0 0 0 0 0 0 0 0 0 0 0 0 0 0 0 0 0 4 12 26 37 40 44 45
0 0 0 0 0 0 0 0 0 0 0 0 0 0 0 0 0 0 0 0 0 0 0 0 0 0 0 0 0 0 0 0 0 0 0 1 8 19 33 37 43 48 45
0 0 0 0 0 0 0 0 0 0 0 0 0 0 0 0 0 0 0 0 0 0 0 0 0 0 0 0 0 0 0 0 0 0 0 0 11 37 53 55 47 39 32
0 0 0 0 0 0 0 0 0 0 0 0 0 0 0 0 0 0 0 0 0 0 0 0 0 0 0 0 0 0 0 0 0 0 0 0 2 15 26 24 17 16 26
0 0 0 0 0 0 0 0 0 0 0 0 0 0 0 0 0 0 0 0 0 17 0 0 0 0 0 0 0 0 0 0 0 0 0 0 0 1 7 16 23 28 35
0 0 0 0 0 0 0 0 0 0 0 0 0 0 0 0 0 0 0 0 21 1 0 0 0 0 0 0 0 0 0 0 0 0 0 0 2 13 15 22 37 44 35
0 0 0 0 0 0 0 0 0 0 0 0 0 0 0 0 0 0 0 0 1 1 0 0 0 0 0 0 0 0 0 0 0 0 0 1 5 11 17 21 19 17 24
0 0 0 0 0 0 0 0 0 0 0 0 0 0 0 0 0 0 0 0 0 0 0 0 0 0 0 0 0 0 0 0 0 0 0 2 5 5 5 5 7 7 6
0 0 0 0 0 0 0 0 0 0 0 0 0 0 0 0 0 0 0 0 0 0 0 0 0 0 0 0 0 0 0 0 0 0 0 2 0 0 0 0 2 5 6
0 0 0 0 0 0 0 0 0 0 0 0 0 0 0 0 0 0 0 0 0 0 0 0 0 0 0 0 0 0 0 0 0 0 0 0 0 0 0 1 4 7 6
0 0 0 0 0 0 0 0 0 0 0 0 0 0 0 0 0 0 0 0 0 0 0 0 0 0 0 0 0 0 0 0 0 0 0 0 0 0 0 0 0 0 2
0 0 0 0 0 0 0 0 0 0 0 0 0 0 0 0 0 0 0 0 0 0 0 0 0 0 0 0 0 0 0 0 0 0 0 0 0 0 0 0 0 0 0
0 0 0 0 0 0 0 0 0 0 0 0 0 0 0 0 0 0 0 0 0 0 0 0 0 0 0 0 0 0 0 2 2 0 0 0 0 0 0 0 0 0 0
0 0 0 0 0 0 0 0 0 0 0 0 0 0 0 0 0 0 0 0 0 0 0 0 0 0 0 0 0 0 1 5 10 7 3 2 0 0 0 0 0 0 0
0 0 0 0 0 0 0 0 0 0 0 0 0 0 0 0 0 0 0 0 0 0 0 0 0 0 0 0 0 0 0 4 3 1 0 3 0 0 0 0 0 0 0
0 0 0 0 0 0 0 0 0 0 0 0 0 0 0 0 0 0 0 0 0 0 0 0 0 0 0 0 0 0 0 2 2 1 0 0 0 0 0 0 0 0 0
0 0 0 0 0 0 0 0 0 0 0 0 0 0 0 0 0 0 0 0 0 0 0 0 0 0 0 0 0 0 0 1 2 2 0 0 1 5 5 0 0 0 0

GFSMA_con_sbcape_039.txt.gz
CAPE
15 25 0 0 0 0 0 0 0 0 0 0 0 0 0 0 0 0 0 0 0 0 0 28 31 1 1 0 0 0 8 0 5 14 2 0 4 0 0 0 0 0 0
16 0 0 0 0 0 0 0 0 0 0 0 0 0 0 0 0 0 0 0 0 0 0 0 49 31 6 0 0 0 0 3 35 37 17 14 7 0 0 0 0 0 0
0 0 0 0 0 0 0 0 0 0 0 0 0 0 0 0 0 0 0 0 0 0 0 1 13 1 16 22 0 0 23 13 5 12 25 19 4 0 0 0 0 0 3
0 0 0 0 0 0 0 0 0 0 0 0 0 0 0 0 0 0 0 0 0 0 0 8 3 0 0 0 0 1 0 0 6 16 37 24 14 0 2 1 0 0 1
0 0 0 0 0 0 0 0 0 0 0 0 0 0 0 0 0 0 0 0 0 0 0 0 0 0 0 0 0 0 0 0 2 6 10 14 16 13 8 3 1 2 2
0 0 0 0 0 0 0 0 0 0 0 0 0 0 0 0 0 0 0 0 0 0 0 0 0 0 0 0 0 0 0 0 1 4 6 5 8 14 9 4 8 13 19
0 0 0 0 0 0 0 0 0 0 0 0 0 0 0 0 0 0 0 0 0 0 0 0 0 0 0 0 0 0 0 0 0 0 0 1 1 2 2 6 17 28 33
0 0 0 0 0 0 0 0 0 0 0 0 0 0 0 0 0 0 0 0 0 0 0 0 0 0 0 0 0 0 0 0 0 0 0 0 1 5 10 13 21 31 41
0 0 0 0 0 0 0 0 0 0 0 0 0 0 0 0 0 0 0 0 0 0 0 0 0 0 0 0 0 0 0 0 0 0 0 0 5 10 16 25 28 31 40
0 0 0 0 0 0 0 0 0 0 0 0 0 0 0 0 0 0 0 0 0 0 0 0 0 0 0 0 0 0 0 0 0 0 0 1 6 13 21 32 44 45 42
0 0 0 0 0 0 0 0 0 0 0 0 0 0 0 0 0 0 0 0 0 0 0 0 0 0 0 0 0 0 0 0 0 0 0 3 8 13 16 20 28 34 45
0 0 0 0 0 0 0 0 0 0 0 0 0 0 0 0 0 0 0 0 2 4 0 0 0 0 0 0 0 0 0 0 0 0 0 0 3 10 19 25 33 37 43
0 0 0 0 0 0 0 0 0 0 0 0 0 0 0 0 0 0 3 1 3 1 12 19 11 0 0 0 0 0 0 0 0 0 0 0 0 1 7 11 17 24 31
0 0 0 0 0 0 0 0 0 0 0 0 0 0 0 0 0 0 2 6 10 13 11 9 18 0 0 0 0 0 0 0 0 0 0 0 0 1 5 11 22 21 24
0 0 0 0 0 0 0 0 0 0 0 0 0 0 0 0 0 0 5 18 34 17 11 16 17 12 1 0 0 0 0 0 0 0 0 0 1 5 8 12 14 20 30
0 0 0 0 0 0 0 0 0 0 0 0 0 0 0 0 0 0 7 31 44 36 14 13 14 13 0 0 0 0 0 0 0 0 0 0 1 3 7 12 17 18 21
0 0 0 0 0 0 0 0 0 0 0 0 0 0 0 0 0 4 21 40 42 35 26 8 9 3 0 0 0 0 0 0 0 0 0 0 0 2 9 5 3 4 8
0 0 0 0 0 0 0 0 0 0 0 0 0 0 0 0 0 4 16 26 19 22 15 5 4 0 0 0 0 0 0 0 0 0 0 0 1 1 1 2 2 6 12
0 0 0 0 0 0 0 0 0 0 0 0 0 0 0 0 0 8 6 1 2 0 0 1 0 0 0 0 0 0 0 0 0 0 0 0 0 0 0 0 1 3 5
0 0 0 0 0 0 0 0 0 0 0 0 0 0 0 0 0 6 0 0 0 0 0 0 0 0 0 0 0 0 0 0 0 0 0 0 0 0 0 0 0 0 1
0 0 0 0 0 0 0 0 0 0 0 0 0 0 0 0 0 1 0 0 0 0 0 0 0 1 0 0 0 0 0 0 0 2 3 14 5 3 1 0 0 0 0
0 0 0 0 0 0 0 0 0 0 0 0 0 0 0 0 0 0 0 0 0 0 0 0 1 0 0 0 0 1 3 5 3 1 4 7 4 2 0 0 0 0 1
0 0 0 0 0 0 0 0 0 0 0 0 0 0 0 0 0 0 0 0 0 0 0 1 1 1 3 0 0 2 6 10 9 4 3 8 1 1 2 0 0 0 1
0 0 0 0 0 0 0 0 0 0 0 0 0 0 0 0 0 0 0 0 0 0 0 0 0 0 0 0 1 7 16 18 10 6 3 4 2 6 4 0 0 0 0
1 0 0 0 1 0 0 0 0 0 0 0 0 0 0 0 0 0 0 0 0 0 0 0 0 0 0 0 1 17 20 18 15 5 1 9 8 9 7 3 9 0 0
0 0 0 0 0 0 0 0 0 0 0 0 0 0 0 0 0 0 0 0 0 0 0 0 0 0 0 0 0 7 12 19 16 13 1 12 13 13 11 2 14 23 36

GFSMA_con_sbcape_042.txt.gz
CAPE
93 153 136 93 34 0 0 0 0 0 0 0 0 0 0 0 0 0 0 0 0 0 4 23 36 9 5 0 0 0 0 0 11 3 0 3 4 1 0 0 0 0 0
172 314 177 50 0 0 0 0 0 0 0 0 0 0 0 0 0 0 0 0 0 0 0 1 72 31 1 0 0 0 0 0 9 7 4 7 1 0 0 0 0 0 0
361 223 96 7 0 0 0 0 0 0 0 0 0 0 0 0 0 0 0 0 0 0 0 0 14 6 19 12 0 0 10 13 7 12 19 12 5 2 0 1 1 1 1
334 164 32 0 0 0 0 0 0 0 0 0 0 0 0 0 0 0 0 0 0 0 1 0 0 0 0 0 4 9 18 4 11 18 20 28 25 8 8 2 4 0 1
90 59 15 0 0 0 0 0 0 0 0 0 0 0 0 0 0 0 0 0 0 0 0 0 0 0 0 0 0 0 0 1 3 5 12 17 23 26 20 18 4 2 6
31 37 0 0 0 0 0 0 0 0 0 0 0 0 0 0 0 0 0 0 0 0 0 0 0 0 0 0 0 0 0 0 0 3 7 7 9 12 13 12 13 14 16
79 21 0 0 0 0 0 0 0 0 0 0 0 0 0 0 0 0 0 0 0 0 0 0 0 0 0 0 0 0 0 0 0 0 0 1 3 4 5 12 23 38 51
14 0 0 0 0 0 0 0 0 0 0 0 0 0 0 0 0 0 0 0 0 0 0 0 0 0 0 0 0 0 0 0 0 0 0 0 0 1 6 17 23 34 47
0 0 0 0 0 0 0 0 0 0 0 0 0 0 0 0 0 0 0 0 0 0 0 0 0 0 0 0 0 0 0 0 0 0 2 11 19 25 31 40 52 56 56
0 0 0 0 0 0 0 0 0 0 0 0 0 0 0 0 0 0 0 0 2 0 0 1 0 2 3 4 1 0 0 0 0 0 0 2 14 27 41 57 77 86 90
0 0 0 0 0 0 0 0 0 0 0 0 0 0 0 0 0 0 0 0 0 1 1 2 2 7 10 7 4 1 0 0 0 0 0 0 3 12 25 39 50 59 65
0 0 0 0 0 0 0 0 0 0 0 0 0 0 0 0 0 0 0 0 1 0 2 5 8 13 16 10 0 0 0 0 0 0 0 0 0 0 3 7 15 25 34
0 0 0 0 0 0 0 0 0 0 0 0 0 0 0 0 0 0 0 0 0 0 5 15 18 18 16 21 27 0 0 0 0 0 0 0 0 1 3 7 14 23 33
0 0 0 0 0 0 0 0 0 0 0 0 0 0 0 0 2 0 0 0 0 1 5 14 17 23 27 30 9 0 0 0 0 0 0 0 0 0 0 3 10 19 29
0 0 0 0 0 0 0 0 0 0 0 0 0 0 0 0 1 1 2 1 8 20 7 9 13 18 28 34 31 13 2 1 0 0 0 0 0 0 0 6 13 19 30
0 0 0 0 0 0 0 0 0 0 0 2 0 0 0 0 1 5 5 7 13 22 29 22 14 20 30 23 15 1 1 0 0 0 0 0 0 0 2 5 10 14 18
0 0 0 0 0 0 0 0 0 0 10 0 2 0 0 0 3 7 13 18 26 35 39 33 17 17 24 18 8 6 2 0 0 0 0 0 0 0 3 4 4 6 9
0 0 0 0 0 0 0 0 0 0 2 5 0 3 5 1 10 18 27 40 39 43 39 26 19 18 26 12 7 7 1 0 0 0 0 0 0 0 0 1 2 4 4
0 0 0 0 0 0 0 0 2 16 2 10 2 5 10 23 35 39 41 51 44 30 35 37 20 24 14 6 9 7 3 0 0 0 0 1 0 0 0 0 0 0 0
0 0 0 0 0 0 0 0 5 4 0 10 6 8 17 25 35 42 38 50 44 41 41 34 21 16 7 4 7 4 1 0 0 0 0 1 0 0 0 0 0 0 0
0 0 0 0 0 0 0 0 9 0 8 10 9 14 15 6 1 7 13 28 42 41 36 27 21 11 7 9 9 4 0 0 0 1 0 5 11 10 23 24 13 14 2
0 0 0 0 0 0 0 0 0 0 14 5 5 8 9 0 0 0 0 0 0 19 31 37 18 12 7 7 10 3 0 1 0 2 1 2 10 9 19 31 17 0 0
0 0 0 0 0 0 0 0 0 1 3 3 3 2 1 2 4 12 5 0 0 0 0 6 8 10 8 8 8 0 1 4 4 3 2 2 7 9 17 20 25 5 0
0 0 0 0 6 2 0 0 0 0 0 0 0 0 1 4 14 21 11 32 14 11 0 0 0 0 2 5 1 0 4 7 7 9 7 5 7 11 25 32 15 24 1
10 9 1 0 0 0 0 0 0 0 0 0 0 0 0 0 1 0 1 29 21 21 1 0 0 0 0 0 0 0 8 17 19 5 6 9 11 10 18 22 32 5 18
0 0 7 7 3 0 0 0 0 0 2 5 3 2 0 0 0 0 0 2 36 26 35 8 0 0 0 0 0 2 8 18 22 12 8 11 13 13 16 12 18 32 51

GFSMA_con_sbcape_045.txt.gz
CAPE
481 290 278 298 204 127 57 2 0 0 0 0 0 0 0 0 0 0 0 0 0 0 0 5 18 10 5 0 0 9 0 0 11 0 0 9 4 0 0 0 0 0 0
398 230 301 262 173 101 35 1 0 0 0 0 0 0 0 0 0 0 0 0 0 0 0 0 65 20 9 0 0 0 0 0 1 0 12 11 2 0 5 0 0 1 0
605 453 398 249 147 73 30 5 1 0 0 0 0 0 0 0 0 0 0 0 0 0 0 0 22 38 31 9 0 0 1 3 11 18 16 22 31 20 7 0 1 5 0
415 512 401 301 145 61 32 3 1 0 0 0 0 0 0 0 0 0 0 0 0 0 0 0 0 0 0 0 2 11 16 17 11 9 6 11 16 19 19 7 10 6 5
694 546 439 305 151 51 25 10 0 0 0 0 0 0 0 0 0 0 0 0 0 0 0 0 0 0 0 0 0 0 0 0 0 1 5 14 18 22 24 24 26 15 9
542 517 411 266 121 41 18 1 0 0 0 0 0 0 0 0 0 0 0 0 0 0 0 0 0 0 0 0 0 0 0 0 0 0 2 1 0 0 0 1 4 11 23
502 459 394 268 138 52 4 0 0 0 0 0 0 0 0 0 0 0 0 0 0 0 0 0 0 0 0 0 0 0 0 0 0 0 0 1 1 3 4 8 14 26 44
617 440 478 221 104 10 3 0 0 0 0 0 0 0 1 0 0 0 0 0 0 0 0 0 0 0 0 0 0 0 0 0 0 0 0 1 5 13 26 41 52 62 67
705 478 405 144 32 10 2 0 0 0 0 0 0 0 0 0 0 0 0 0 0 0 0 0 0 0 0 0 0 1 0 0 0 0 0 1 10 26 43 53 59 65 73
622 360 148 46 5 1 2 0 0 0 0 0 0 0 0 0 0 0 0 0 0 1 2 0 0 0 2 5 8 0 0 0 0 0 0 0 4 16 31 53 67 75 86
399 156 26 5 2 1 1 0 0 0 0 0 0 0 0 0 0 0 0 0 1 1 3 5 6 2 4 9 9 0 0 0 0 0 0 0 0 3 4 8 14 24 35
190 59 2 1 1 0 0 0 0 0 0 0 0 0 0 0 1 6 4 1 2 0 0 1 4 8 5 11 0 0 0 0 0 0 0 0 0 0 0 4 10 18 27
37 7 3 0 0 0 0 0 0 0 0 0 0 0 0 0 0 0 1 1 0 0 0 5 9 9 2 5 7 0 0 0 0 0 0 0 0 0 0 1 5 14 27
0 2 2 0 0 0 0 0 0 0 0 0 0 0 2 0 6 4 3 1 0 0 1 3 9 12 11 13 1 0 0 0 0 0 0 0 0 0 0 0 5 13 24
0 0 0 0 0 0 0 0 0 0 0 0 0 10 12 9 8 5 2 2 4 3 3 5 13 9 5 15 12 7 7 7 0 0 0 0 0 0 0 4 5 10 15
0 0 0 0 0 0 0 0 0 0 0 0 2 0 10 20 4 2 7 10 8 17 25 7 10 22 27 6 8 0 0 3 2 4 1 0 0 0 0 0 2 9 15
0 0 0 0 0 0 0 0 0 0 0 0 0 8 15 7 12 19 25 14 13 15 38 31 20 45 43 41 24 17 4 9 13 9 2 0 0 0 0 0 1 4 9
3 0 0 0 0 0 0 0 0 0 0 1 0 6 10 6 39 21 25 38 30 44 49 47 41 40 57 52 63 20 0 2 3 0 2 0 0 0 0 0 0 0 1
0 0 0 0 0 0 0 0 0 0 1 0 1 18 11 21 29 37 40 54 52 29 67 69 43 58 53 51 33 28 31 15 1 3 10 0 0 0 0 0 0 0 0
0 1 0 0 0 0 0 0 0 0 0 2 5 23 34 22 27 40 66 83 50 83 82 76 62 68 64 48 19 24 29 43 3 0 0 1 2 1 4 7 3 0 0
0 0 0 0 0 0 0 0 0 2 2 5 5 9 23 17 7 7 13 57 86 76 84 86 71 73 62 45 33 29 14 13 3 13 14 8 10 11 14 23 35 58 45
0 0 0 0 0 0 0 0 0 3 0 3 4 15 11 1 2 0 0 0 0 21 76 73 72 65 75 46 50 39 32 7 2 6 14 3 9 7 16 22 15 0 0
0 0 0 0 0 2 0 0 0 0 0 0 5 5 1 0 2 6 7 0 0 0 0 4 29 54 61 58 32 15 18 4 2 3 10 10 16 19 17 4 24 24 31
1 3 3 2 1 0 0 0 0 0 6 1 1 1 5 5 8 10 27 56 62 48 10 0 0 1 36 56 32 9 1 0 0 6 23 26 18 16 15 16 15 30 44
7 3 0 0 0 0 0 0 0 1 1 0 0 0 1 9 2 0 0 35 57 55 16 0 0 0 0 0 0 0 0 0 16 1 17 27 15 19 28 21 38 17 2
1 1 2 1 0 0 0 0 0 4 5 10 4 5 3 5 1 0 32 19 37 47 84 80 25 0 0 0 0 0 0 6 16 24 11 19 4 8 14 9 20 37 58

GFSMA_con_sbcape_051.txt.gz
CAPE
76 64 65 9 0 0 0 0 0 0 0 0 0 0 0 0 0 0 0 0 0 0 0 15 11 17 8 1 10 0 0 5 0 0 1 4 2 0 5 4 3 2 2
149 102 116 43 0 0 0 0 0 0 0 0 0 0 0 0 0 0 0 0 0 0 0 0 11 35 15 1 2 2 0 0 0 0 6 4 9 8 13 5 2 3 5
165 210 229 184 158 4 0 0 0 0 0 0 0 0 0 0 0 0 0 0 0 0 0 0 0 74 41 12 2 0 0 0 0 9 8 1 0 1 2 12 3 5 8
290 217 109 102 8 0 0 0 0 0 0 0 0 0 0 0 0 0 0 0 0 0 0 0 15 21 31 35 10 3 2 6 13 5 0 0 0 4 6 6 3 8 15
214 98 263 100 14 0 0 0 0 0 0 0 0 0 0 0 0 0 0 0 0 0 0 0 0 0 0 0 3 4 0 0 0 0 0 0 0 0 0 2 4 7 11
128 301 212 116 4 0 0 0 0 0 0 0 0 0 0 0 0 0 0 0 0 0 0 0 0 0 0 0 0 0 0 0 0 0 0 0 0 0 1 2 5 9 19
222 260 183 63 16 0 0 0 0 0 0 0 0 0 0 0 0 0 0 0 0 0 0 0 0 0 0 5 0 0 0 0 0 0 0 0 0 0 7 17 31 32 38
193 211 221 116 14 3 0 0 0 0 0 0 0 0 0 0 0 0 0 0 0 0 0 0 0 0 0 0 0 0 0 0 0 0 0 0 0 0 2 13 30 32 35
213 257 191 112 3 0 0 0 0 0 0 0 0 0 0 0 0 0 0 0 0 0 0 0 0 0 0 0 0 0 0 0 0 0 0 0 0 0 4 20 27 28 28
173 196 143 48 5 0 0 0 0 0 0 0 0 0 0 0 0 0 0 0 0 0 0 0 0 0 0 0 0 0 0 0 0 0 0 0 0 0 0 6 11 11 12
153 134 108 81 16 2 0 0 0 0 0 0 0 0 0 0 0 0 0 0 0 0 0 0 0 0 0 0 0 0 0 0 0 0 0 0 0 0 0 1 6 9 12
160 227 135 44 3 0 0 0 0 0 0 0 0 0 0 0 0 0 0 0 0 0 0 0 0 0 0 0 0 0 0 0 0 0 0 0 0 0 0 0 6 6 11
60 67 18 2 0 0 0 0 0 0 0 0 0 0 0 0 0 0 0 0 0 0 0 0 0 0 0 0 0 0 0 0 0 0 0 0 0 0 0 0 0 1 6
20 7 9 0 0 0 0 0 0 0 0 0 0 0 0 0 0 0 0 0 0 0 0 0 0 0 0 0 0 0 0 0 0 0 0 0 0 0 0 0 0 0 1
0 0 0 0 0 0 0 0 0 0 0 0 0 0 0 0 0 0 0 0 0 0 0 0 0 0 0 0 0 0 0 0 0 0 0 0 0 0 0 0 0 0 0
0 0 0 0 0 0 0 0 0 0 0 0 0 0 0 0 0 0 0 0 0 0 0 0 0 0 0 0 0 0 0 0 0 0 0 0 0 0 0 0 0 0 0
0 0 0 0 0 0 0 0 0 0 0 0 0 0 0 0 0 0 0 0 0 0 0 0 0 0 0 0 0 0 0 0 0 0 0 0 0 0 0 0 0 0 0
0 0 0 0 0 0 0 0 0 0 0 0 0 0 0 0 0 0 0 0 0 0 0 0 0 0 0 0 0 0 0 0 0 0 0 0 0 0 0 0 0 0 0
0 0 0 0 0 0 0 0 0 0 0 0 0 0 0 0 0 0 0 0 0 0 0 0 0 0 0 0 0 0 0 0 0 0 0 0 0 0 0 0 0 0 7
0 0 0 0 0 0 0 0 0 0 0 0 0 0 0 0 0 0 0 0 0 0 0 0 0 0 0 0 0 0 0 0 0 0 0 0 0 0 0 6 6 30 37
0 0 0 0 0 0 0 0 0 0 0 0 0 0 0 0 0 0 0 0 0 0 0 0 0 0 0 0 0 0 0 0 0 0 0 0 0 0 0 0 0 9 25
0 0 0 0 0 0 0 0 0 0 0 0 0 0 0 0 0 0 0 0 0 0 0 0 0 0 0 0 0 0 0 0 0 0 0 0 0 0 0 0 0 0 13
0 0 0 0 0 0 0 0 0 0 0 0 0 0 0 0 0 0 0 0 0 0 0 0 0 0 0 0 0 0 0 0 0 0 0 0 0 0 0 0 0 19 15
0 0 0 0 0 0 0 0 0 0 0 0 0 0 0 0 0 0 0 0 0 0 0 0 0 0 0 0 0 0 0 0 0 0 0 0 0 0 0 0 0 3 1
0 0 0 0 0 0 0 0 0 0 0 0 0 0 0 0 0 0 0 0 0 0 0 0 1 0 0 0 0 0 0 0 0 0 0 0 0 0 0 0 0 0 0
0 0 0 0 0 0 0 0 0 0 0 0 0 0 0 0 0 0 0 0 0 0 0 0 0 0 0 0 0 0 0 0 0 0 0 0 0 0 0 0 0 0 0

GFSMA_con_sbcape_054.txt.gz
CAPE
0 0 2 0 0 0 0 0 0 0 0 0 0 0 0 0 0 0 0 0 0 0 9 15 17 16 9 7 0 0 6 1 0 0 0 0 0 0 7 0 0 0 1
0 0 0 0 0 0 0 0 0 0 0 0 0 0 0 0 0 0 0 0 0 0 0 0 17 24 17 4 8 0 0 0 0 0 3 4 0 2 8 6 0 1 4
19 0 14 3 0 0 0 0 0 0 0 0 0 0 0 0 0 0 0 0 0 0 0 0 0 8 31 14 4 6 0 0 0 0 7 0 0 1 1 0 2 8 14
47 54 55 55 13 1 0 0 0 0 0 0 0 0 0 0 0 0 0 0 0 0 0 0 3 65 50 32 4 0 1 4 18 21 0 0 0 0 0 1 2 4 3
127 100 80 46 13 0 0 0 0 0 0 0 0 0 0 0 0 0 0 0 0 0 0 0 0 0 0 7 26 25 27 16 2 0 1 0 0 0 0 0 1 5 9
57 119 89 12 0 0 0 0 0 0 0 0 0 0 0 0 0 0 0 0 0 0 0 0 0 0 0 0 0 0 2 3 0 0 0 0 0 0 0 0 1 7 15
47 66 122 7 0 0 0 0 0 0 0 0 0 0 0 0 0 0 0 0 0 0 0 0 0 0 0 0 0 0 0 0 0 0 0 0 0 0 0 0 0 0 6
26 37 63 25 0 0 0 0 0 0 0 0 0 0 0 0 0 0 0 0 0 0 0 0 0 0 0 0 0 0 0 0 0 0 0 0 0 0 0 0 0 5 22
0 33 61 24 0 0 0 0 0 0 0 0 0 0 0 0 0 0 0 0 0 0 0 0 0 0 0 0 0 0 0 0 0 0 0 0 0 0 0 0 0 4 13
0 36 63 8 0 0 0 0 0 0 0 0 0 0 0 0 0 0 0 0 0 0 0 0 0 0 0 0 0 0 0 0 0 0 0 0 0 0 0 0 0 0 6
17 22 33 2 0 0 0 0 0 0 0 0 0 0 0 0 0 0 0 0 0 0 0 0 0 0 0 0 0 0 0 0 0 0 0 0 0 0 0 0 0 1 7
19 27 73 41 2 0 0 0 0 0 0 0 0 0 0 0 0 0 0 0 0 0 0 0 0 0 0 0 0 0 0 0 0 0 0 0 0 0 0 0 0 2 5
31 20 37 54 28 0 0 0 0 0 0 0 0 0 0 0 0 0 0 0 0 0 0 0 0 0 0 0 0 0 0 0 0 0 3 0 0 0 0 0 0 0 0
2 0 0 0 0 0 0 0 0 0 0 0 0 0 0 0 0 0 0 0 0 0 0 0 0 0 0 0 0 0 0 0 0 0 0 1 0 0 0 0 0 0 0
0 0 0 0 0 0 0 0 0 0 0 0 0 0 0 0 0 0 0 0 0 0 0 0 0 0 0 0 0 0 0 0 0 0 0 0 1 0 0 0 0 0 0
0 0 0 0 0 0 0 0 0 0 0 0 0 0 0 0 0 0 0 0 0 0 0 0 0 0 0 0 0 0 0 0 0 0 0 0 0 5 8 1 1 0 0
0 0 0 0 0 0 0 0 0 0 0 0 0 0 0 0 0 0 0 0 0 0 0 0 0 0 0 0 0 0 0 0 0 0 0 0 0 0 0 4 7 0 0
0 0 0 0 0 0 0 0 0 0 0 0 0 0 0 0 0 0 0 0 0 0 0 0 0 0 0 0 0 0 0 0 0 0 0 0 0 0 0 0 0 0 0
0 0 0 0 0 0 0 0 0 0 0 0 0 0 0 0 0 0 0 0 0 0 0 0 0 0 0 0 0 0 0 0 0 0 0 0 0 0 0 0 0 0 0
0 0 0 0 0 0 0 0 0 0 0 0 0 0 0 0 0 0 0 0 0 0 0 0 0 0 0 0 0 0 0 0 0 0 0 0 0 0 0 0 3 0 5
0 0 0 0 0 0 0 0 0 0 0 0 0 0 0 0 0 0 0 0 0 0 0 0 0 0 0 0 0 0 0 0 0 0 0 0 0 0 0 0 0 3 2
0 0 0 0 0 0 0 0 0 0 0 0 0 0 0 0 0 0 0 0 0 0 0 0 0 0 0 0 0 0 0 0 0 0 0 0 0 0 0 0 0 0 0
0 0 0 0 0 0 0 0 0 0 0 0 0 0 0 0 0 0 0 0 0 0 0 0 0 0 0 0 0 0 0 0 0 0 0 0 0 0 0 0 0 0 0
0 0 0 0 0 0 0 0 0 0 0 0 0 0 0 0 0 0 0 0 0 0 0 0 0 0 0 0 5 4 2 7 6 0 0 0 0 0 0 0 0 0 0
0 0 0 0 0 0 0 0 0 0 0 0 0 0 0 0 0 0 0 0 0 0 0 0 0 0 0 0 0 7 3 3 2 0 0 0 0 0 0 0 0 0 0
0 0 0 0 0 0 0 0 0 0 0 0 0 0 0 0 0 0 0 0 0 0 0 0 1 0 0 0 0 0 0 14 6 0 0 0 0 0 0 0 0 0 0

GFSMA_con_sbcape_060.txt.gz
CAPE
0 0 0 0 0 0 0 0 0 0 0 0 0 0 0 0 0 0 0 0 2 6 8 22 28 25 27 13 13 11 4 0 0 0 0 0 0 4 0 0 1 3 7
0 0 0 0 0 0 0 0 0 0 0 0 0 0 0 0 0 0 0 0 0 2 9 13 21 34 34 14 12 13 9 0 0 0 1 1 0 0 0 0 0 0 0
0 0 0 0 0 0 0 0 0 0 0 0 0 0 0 0 0 0 0 0 0 0 0 2 28 28 34 28 9 6 3 0 0 0 0 0 0 0 0 0 0 0 0
2 0 0 0 0 0 0 0 0 0 0 0 0 0 0 0 0 0 0 0 0 0 0 0 0 61 60 30 44 22 8 2 0 9 1 0 0 0 0 0 0 0 0
2 1 0 0 0 0 0 0 0 0 0 0 0 0 0 0 0 0 0 0 0 0 0 0 0 0 58 79 45 34 26 32 22 18 0 0 0 0 0 0 0 0 0
21 13 14 3 0 0 0 0 0 0 0 0 0 0 0 0 0 0 0 0 0 0 0 0 0 0 30 106 60 24 23 39 49 10 9 0 0 0 0 0 0 0 0
79 55 63 49 31 12 0 0 0 0 0 0 0 0 0 0 0 0 0 0 0 0 0 0 0 0 0 0 18 0 0 0 3 21 5 0 0 0 0 0 0 0 0
60 92 113 74 27 12 0 0 0 0 0 0 0 0 0 0 0 0 0 0 0 0 0 0 0 0 0 0 0 0 0 0 0 17 0 0 0 0 0 0 0 0 0
5 36 56 35 36 0 1 0 0 0 0 0 0 0 0 0 0 0 0 0 0 0 0 0 0 0 0 0 0 0 0 3 11 2 1 0 0 0 0 0 0 0 0
0 8 11 4 2 0 0 0 0 0 0 0 0 0 0 0 0 0 0 0 0 0 0 0 0 0 0 0 0 0 0 0 4 20 2 9 22 5 0 0 0 0 0
0 0 0 0 0 0 1 0 0 0 0 0 0 0 0 0 0 0 0 0 0 0 0 0 0 0 0 0 0 0 0 0 0 7 32 35 44 64 44 21 8 0 0
0 0 0 0 0 0 0 0 0 0 0 0 0 0 0 0 0 0 0 0 0 0 0 0 0 0 0 0 0 0 0 0 0 0 31 97 77 75 87 80 76 59 40
0 0 0 0 0 0 0 0 0 0 0 0 0 0 0 0 0 0 0 0 0 0 0 0 0 0 0 0 0 0 0 0 0 0 1 33 91 111 96 77 95 92 74
0 0 0 0 0 0 0 0 0 0 0 0 0 0 0 0 0 0 0 0 0 0 0 0 0 0 0 0 0 0 0 0 0 0 0 0 22 49 87 103 86 97 75
0 0 0 0 0 0 0 0 0 0 0 0 0 0 0 0 0 0 0 0 0 0 0 0 0 0 0 0 0 0 0 0 0 0 0 0 1 22 52 78 100 121 111
0 0 0 0 0 0 0 0 1 0 0 0 0 0 0 0 0 0 0 0 0 0 0 0 0 0 0 0 0 0 0 0 0 0 0 0 0 0 7 28 64 82 105
0 0 0 0 0 0 0 0 0 0 0 0 0 0 0 0 0 0 0 0 0 0 0 0 0 0 0 0 0 0 0 0 0 0 0 0 0 0 0 0 7 43 78
0 0 0 0 0 0 0 0 0 0 0 0 0 0 0 0 0 0 0 0 0 0 0 0 0 0 0 0 0 0 0 0 0 0 0 0 0 0 0 0 0 0 21
0 0 0 0 0 0 0 0 0 0 0 0 0 0 0 0 0 0 0 0 0 0 0 0 0 0 0 0 0 0 0 0 0 0 0 0 0 0 0 0 0 0 13
0 0 0 0 0 0 0 0 0 0 0 0 0 0 0 0 0 0 0 0 0 0 0 0 0 0 0 0 0 0 0 0 0 0 0 0 0 0 0 0 0 13 32
0 0 0 0 0 0 0 0 0 0 0 0 0 0 0 0 0 0 0 0 0 0 0 0 0 0 0 0 0 0 0 0 0 0 0 0 0 0 0 0 0 0 24
0 0 0 0 1 0 0 0 0 0 0 0 0 0 0 0 0 0 0 0 0 0 0 0 0 0 0 0 0 0 0 0 0 0 0 0 0 0 0 0 0 0 0
0 0 0 0 1 0 0 0 0 0 0 0 0 0 0 0 0 0 0 0 0 0 0 0 0 0 0 0 0 0 0 1 1 1 0 0 0 0 0 0 0 1 0
1 1 1 1 2 0 0 0 0 0 0 0 0 0 0 0 0 0 0 0 0 0 0 0 0 0 0 0 0 2 0 2 0 1 0 4 0 0 0 0 0 0 4
1 0 0 0 0 0 0 0 0 0 0 0 0 0 0 0 0 0 0 0 0 0 0 0 0 0 0 0 0 1 3 2 2 3 2 0 0 0 0 0 0 0 0
0 0 0 0 0 0 0 0 0 0 0 0 0 0 0 0 0 0 0 0 0 0 0 0 0 0 0 0 0 0 3 6 7 1 0 1 4 1 6 0 0 0 0

GFSMA_con_sbcape_063.txt.gz
CAPE
5 11 2 1 0 0 2 0 0 0 0 0 0 0 0 0 0 0 5 8 17 27 17 20 20 17 14 11 8 10 5 7 1 0 0 0 0 0 0 0 0 0 0
19 12 7 0 0 0 0 0 0 0 0 0 0 0 0 0 0 0 0 3 2 15 22 19 26 28 25 20 17 15 5 0 1 0 5 0 0 0 0 0 0 0 0
79 48 14 0 0 0 0 0 0 0 0 0 0 0 0 0 0 0 0 0 0 0 0 25 20 31 33 19 11 15 22 0 0 0 0 0 0 0 0 0 0 0 0
65 33 6 3 6 6 4 0 0 0 0 0 0 0 0 0 0 0 0 0 0 0 0 0 0 51 39 30 18 7 2 4 0 0 0 0 0 0 0 0 0 0 0
69 58 19 26 19 29 31 1 0 0 0 0 0 0 0 0 0 0 0 0 0 0 0 0 0 0 93 90 53 56 44 22 10 16 6 0 0 0 0 0 0 0 0
51 71 63 57 47 24 52 40 8 0 0 0 0 0 0 0 0 0 0 0 0 0 0 0 0 0 0 92 89 48 49 63 63 40 5 5 0 0 0 0 0 0 0
63 121 128 94 90 115 86 41 40 1 0 0 0 0 0 0 0 0 0 0 0 0 0 0 0 0 0 48 131 44 0 0 8 73 57 4 0 0 0 0 0 0 0
86 124 155 178 134 148 114 74 58 50 23 0 0 0 0 0 0 0 0 0 0 0 0 0 0 0 0 0 0 22 0 0 0 8 24 20 0 0 0 0 0 0 0
148 182 189 200 206 256 231 175 82 45 109 0 0 17 0 0 0 0 0 0 0 0 0 0 0 0 0 0 0 0 0 0 0 0 6 67 5 2 1 1 0 0 0
138 118 110 121 175 225 180 141 46 92 100 58 0 0 0 0 0 2 0 0 0 0 0 0 0 0 0 0 0 0 0 0 0 0 0 3 35 44 40 31 24 17 8
53 61 55 95 130 184 208 215 112 61 68 80 9 0 0 0 0 0 0 0 0 0 0 0 0 0 0 0 0 0 0 0 0 0 0 2 13 31 74 73 68 53 36
42 64 50 76 114 120 140 190 187 131 75 32 0 0 0 0 0 0 0 0 0 0 0 0 0 0 0 0 0 0 0 0 0 0 0 0 0 20 54 64 88 100 93
22 34 44 51 57 79 115 170 175 128 96 25 0 0 0 0 3 0 0 0 0 0 0 0 0 0 0 0 0 0 0 0 0 0 0 0 0 0 13 38 49 68 89
25 10 26 34 32 48 91 137 131 124 61 0 0 0 4 4 8 0 0 0 0 0 0 0 0 0 0 0 0 0 0 0 0 0 0 0 0 0 0 14 37 73 76
0 0 4 5 5 21 58 108 135 132 27 5 27 61 8 7 7 0 0 0 0 0 0 0 0 0 0 0 0 0 0 0 0 0 0 0 0 0 0 0 18 43 64
0 0 0 0 0 0 21 43 49 11 4 8 6 6 4 3 1 0 0 0 0 0 1 0 0 0 0 0 0 0 0 0 0 0 0 0 0 0 0 0 0 0 9
0 0 0 0 0 0 1 2 2 1 5 5 3 1 2 0 1 0 0 0 0 0 0 0 0 0 0 0 0 0 0 0 0 0 0 0 0 0 0 0 0 0 0
0 0 0 0 0 0 0 0 0 0 0 0 0 0 2 1 0 0 0 0 0 0 0 0 0 0 0 0 0 0 0 0 0 0 0 0 0 0 0 0 0 0 0
0 0 0 0 0 0 0 0 0 0 1 1 0 0 1 1 1 0 0 0 0 0 0 0 0 0 0 0 0 0 0 0 0 0 0 0 0 0 0 0 0 0 0
0 0 0 0 0 0 0 0 0 0 0 0 0 0 0 0 0 1 0 0 0 0 0 0 0 0 0 0 0 0 0 0 0 0 0 0 0 0 0 0 0 0 0
0 0 0 0 8 4 0 0 0 1 0 0 0 0 0 0 0 0 0 0 0 0 0 0 0 0 0 0 0 0 0 0 0 0 0 0 0 0 0 0 0 0 0
0 0 0 2 4 0 0 0 0 0 0 0 1 0 0 0 0 0 0 0 0 0 0 0 0 0 0 0 0 0 0 0 0 0 0 0 0 0 0 0 0 0 0
7 6 4 4 1 1 1 1 1 0 0 0 0 0 0 0 0 0 0 0 0 0 0 0 0 0 0 0 0 0 0 0 0 0 0 0 0 0 0 0 0 0 0
7 3 0 0 0 0 1 1 0 0 0 0 0 0 0 0 0 0 0 0 0 0 0 0 0 0 0 0 2 1 0 0 0 0 0 0 0 0 0 1 0 0 0
1 1 0 0 0 1 1 1 0 0 0 0 0 0 0 0 0 0 0 0 0 0 0 0 0 0 0 0 0 0 0 0 0 0 0 0 0 0 1 1 7 0 0
0 0 0 0 0 0 0 0 0 0 0 0 0 0 0 0 0 0 0 0 0 0 0 0 0 0 0 0 0 0 0 0 0 0 0 0 0 1 3 0 8 17 4

GFSMA_con_sbcape_066.txt.gz
CAPE
168 83 192 214 179 207 148 70 25 0 0 0 0 0 0 0 0 4 6 11 23 24 15 18 14 12 7 6 7 9 13 8 0 0 0 0 0 0 0 0 0 0 0
163 81 76 67 66 158 163 81 40 3 0 0 0 0 0 0 0 3 5 3 8 26 38 26 28 21 20 8 4 6 4 11 1 0 0 0 0 0 0 0 0 0 0
145 175 78 62 54 63 59 37 33 8 0 0 0 0 0 0 0 0 0 6 1 6 22 40 49 32 28 19 6 0 0 0 0 0 0 0 0 0 0 0 0 0 0
160 163 108 87 58 50 25 23 24 18 7 1 0 0 0 0 0 0 0 0 1 2 0 5 68 77 45 30 19 13 12 0 0 0 0 0 0 0 0 0 0 0 0
179 131 105 71 128 96 27 18 31 13 2 0 0 0 0 0 0 0 0 0 0 0 0 0 0 29 88 62 23 18 17 11 1 0 1 0 0 0 0 0 0 0 0
107 94 80 110 121 173 133 98 108 74 39 10 0 0 0 0 0 0 0 0 0 0 0 0 0 0 7 97 85 55 60 50 40 30 30 6 0 0 0 0 0 0 0
146 196 103 126 153 167 235 200 200 155 97 76 1 0 0 0 0 0 0 0 0 0 0 0 0 0 0 0 84 81 40 30 34 67 55 27 15 0 0 0 0 0 0
81 119 167 144 150 165 208 266 251 210 219 122 199 250 226 57 1 0 0 0 0 0 0 0 0 0 0 0 0 120 47 7 0 0 41 79 63 1 0 0 0 0 0
33 79 166 162 202 215 220 237 244 278 282 211 189 258 213 204 214 68 0 0 0 0 0 0 0 0 0 0 0 5 3 0 0 0 8 65 87 34 18 15 14 6 0
62 69 200 246 273 330 291 293 286 267 322 303 195 181 278 248 163 127 1 0 0 0 0 0 0 0 0 0 0 0 0 0 0 0 0 1 14 75 51 41 37 37 21
129 139 249 273 311 409 316 490 321 372 373 479 248 215 152 195 187 211 164 92 0 0 0 0 0 0 0 0 0 0 0 0 0 0 0 0 0 4 25 60 69 74 79
93 93 123 249 277 254 301 316 356 503 333 430 409 430 279 234 184 164 51 158 67 0 0 0 0 0 0 0 0 0 0 0 0 0 0 0 0 0 0 3 29 57 86
24 35 124 203 180 166 195 218 323 306 360 365 396 439 331 220 23 6 3 83 69 0 0 0 0 0 0 0 0 0 0 0 0 0 0 0 0 0 0 0 0 2 33
42 27 107 149 137 194 202 239 370 239 332 411 436 429 327 110 0 20 0 12 1 5 0 0 0 0 0 0 0 0 0 0 0 0 0 0 0 0 0 0 0 0 0
32 79 130 83 106 129 142 160 261 215 287 499 568 472 202 23 2 24 24 16 12 6 1 7 3 0 0 0 0 0 0 0 0 0 0 0 0 0 0 0 0 0 0
40 73 88 64 96 76 68 101 196 158 218 541 540 300 224 242 106 36 12 5 2 0 1 0 0 0 0 0 0 0 0 0 0 0 0 0 0 0 0 0 0 0 0
10 11 9 19 29 27 64 122 95 82 139 195 99 29 15 0 1 1 1 3 0 0 1 1 0 0 0 0 0 0 0 0 1 0 0 0 0 0 0 0 0 0 0
17 10 4 0 1 22 69 119 171 23 44 8 13 3 0 0 0 1 2 0 0 0 1 0 0 0 0 0 0 2 0 0 0 0 0 0 0 0 0 0 0 0 0
35 33 17 42 34 23 23 44 26 0 0 0 0 1 0 0 0 2 1 0 0 0 0 0 0 0 0 0 0 0 0 0 0 0 0 0 0 0 0 0 0 0 0
0 5 22 8 37 16 8 39 12 0 0 0 0 0 0 0 0 0 0 0 0 0 0 0 0 0 0 0 0 0 0 0 0 0 0 0 0 0 0 0 0 0 0
2 2 3 5 27 13 17 44 4 13 5 3 2 0 0 0 0 0 0 0 0 0 0 0 0 0 0 0 0 0 0 0 0 0 0 0 0 0 0 0 0 0 0
0 0 2 3 13 2 0 0 0 29 10 6 1 0 0 0 0 0 0 0 0 0 0 0 0 0 0 0 0 0 0 0 0 0 0 0 0 0 0 0 0 0 0
1 3 2 1 0 3 0 0 0 0 0 0 0 0 0 0 0 0 0 0 0 0 0 0 0 0 0 0 0 0 0 0 0 0 0 0 0 0 0 0 0 0 0
48 60 32 17 48 21 0 1 1 0 0 0 0 0 0 0 0 0 0 0 0 0 0 0 0 0 0 0 0 0 0 0 0 0 0 0 0 0 0 0 0 0 0
148 119 34 14 3 0 1 1 0 1 1 0 0 0 1 0 1 0 0 0 0 0 0 0 0 0 0 0 0 0 0 0 0 0 0 0 0 0 0 0 0 0 0
0 0 0 0 1 0 1 1 0 0 0 0 1 2 0 0 0 0 0 0 0 0 0 0 0 0 0 0 0 0 0 0 0 0 0 0 0 0 0 0 0 2 12

GFSMA_con_sbcape_069.txt.gz
CAPE
150 310 247 90 21 73 0 0 21 6 1 0 0 0 5 21 10 3 4 15 24 24 10 10 16 11 8 5 3 2 0 0 0 0 0 0 0 0 0 0 0 0 0
179 259 236 279 167 164 88 39 44 5 0 0 0 0 2 4 18 15 2 5 18 31 31 15 11 13 13 5 1 2 4 1 0 0 0 0 0 0 0 0 0 0 0
236 208 328 285 272 191 287 176 67 3 0 0 0 0 0 0 1 25 1 1 4 8 32 58 29 11 15 13 6 2 0 2 0 0 0 0 0 0 0 0 0 0 0
304 325 262 193 244 283 251 151 55 10 0 0 0 0 0 0 0 0 4 35 2 3 0 41 71 62 33 17 13 11 5 0 3 1 1 0 0 0 0 0 0 0 0
241 282 237 260 391 274 264 189 116 61 29 13 0 0 0 0 0 0 0 0 13 4 8 0 8 39 50 52 14 18 31 18 5 2 0 0 0 0 0 0 0 0 0
201 187 207 302 253 163 125 189 200 122 100 56 1 0 0 0 0 0 0 0 0 0 0 9 0 0 6 71 68 31 37 51 40 14 4 8 0 0 0 0 0 0 0
171 208 166 248 268 259 214 308 280 342 186 145 19 0 0 0 0 0 0 0 0 0 0 0 0 0 0 13 90 51 74 74 84 69 49 39 14 0 0 0 0 0 0
152 143 144 167 208 273 386 389 341 302 246 274 123 184 134 28 3 0 1 0 0 0 0 0 0 0 0 0 12 77 74 57 59 55 77 90 91 74 41 2 1 0 0
120 121 182 218 215 316 410 443 478 436 251 349 276 367 189 173 259 153 65 1 0 0 0 0 0 0 0 0 0 0 10 26 82 71 60 61 110 79 64 28 14 16 10
92 117 173 181 275 338 401 439 437 464 238 218 261 235 376 358 249 104 157 85 53 0 0 0 0 0 0 0 0 0 7 0 0 0 0 0 0 6 54 56 51 53 46
125 78 122 154 144 353 389 498 374 372 351 178 157 446 341 218 298 191 121 88 9 6 0 0 0 0 0 0 0 0 0 0 0 0 0 0 0 0 0 4 40 56 63
155 144 96 102 160 237 366 292 198 191 224 377 224 363 311 178 168 263 274 384 323 69 0 0 0 0 0 0 0 0 0 0 0 0 0 0 0 0 0 0 0 9 42
61 140 81 39 27 64 125 224 117 188 239 364 375 302 242 359 364 406 315 338 126 1 0 0 0 0 0 0 0 0 0 0 0 0 0 0 0 0 0 0 0 0 0
2 61 66 38 102 97 162 167 244 132 286 199 347 312 441 398 449 520 396 28 0 7 35 0 0 3 0 0 0 0 0 0 0 0 0 0 0 0 0 0 0 0 0
3 5 26 87 129 150 157 153 162 201 111 142 450 448 450 524 712 484 145 12 0 24 2 0 3 0 0 2 0 0 0 0 0 0 0 0 0 0 0 0 0 0 0
15 20 30 51 45 28 63 89 86 201 208 272 371 459 483 518 515 359 68 35 44 3 1 35 4 0 0 0 0 0 0 0 0 0 0 0 0 0 0 0 0 0 0
40 35 16 45 45 54 80 113 107 132 186 219 280 353 377 391 318 133 80 12 0 0 0 0 0 0 0 0 0 0 0 0 0 0 0 0 0 0 0 0 0 0 0
158 52 118 88 86 69 103 103 128 95 138 202 259 294 230 80 120 76 1 0 0 0 0 0 0 0 0 0 0 0 0 0 0 0 0 0 0 0 0 0 0 0 0
190 121 87 69 79 102 129 155 151 137 153 141 174 264 161 33 2 0 0 0 0 0 1 0 0 0 0 0 0 0 0 0 0 0 0 0 0 0 0 0 0 0 0
218 163 89 63 85 66 82 93 91 114 131 114 111 148 31 3 0 0 0 0 0 0 0 0 0 0 0 0 0 0 0 0 0 0 0 0 0 0 0 0 0 0 0
192 178 176 166 155 122 46 78 99 87 43 27 67 17 0 3 0 0 0 0 0 0 0 0 0 0 0 0 0 0 0 0 0 0 0 0 0 0 0 0 0 0 0
201 199 166 188 193 60 0 0 0 223 34 79 52 0 0 0 0 0 0 0 0 0 0 0 0 0 0 0 0 0 0 0 0 0 0 0 0 0 0 0 0 0 0
277 237 205 181 179 208 0 0 0 1 54 0 0 0 0 0 0 0 1 1 0 0 0 0 0 0 0 0 0 0 0 0 0 0 0 0 0 0 0 0 0 0 0
275 269 299 252 236 175 12 0 0 0 41 34 18 2 0 0 0 0 0 0 0 0 0 0 0 0 0 0 0 0 0 0 0 0 0 0 0 0 0 0 0 0 0
323 287 249 211 151 198 0 0 0 0 0 0 0 0 0 0 0 0 0 0 0 0 1 0 1 0 0 0 0 0 0 0 0 0 0 0 0 0 13 5 0 0 0
310 204 0 0 0 0 1 2 0 0 0 0 0 0 0 1 1 1 0 0 0 1 1 0 0 0 0 0 0 0 0 0 0 0 0 0 0 0 0 0 0 0 0

GFSMA_con_sbcape_072.txt.gz
CAPE
24 60 0 0 0 0 0 0 0 0 0 0 0 0 29 6 0 0 0 15 27 17 15 13 9 6 3 1 0 0 0 0 0 0 0 0 0 0 0 0 0 0 0
17 42 26 0 4 0 4 0 0 0 0 0 0 0 19 8 0 0 0 2 13 22 14 13 10 9 6 4 1 1 0 0 0 0 0 0 0 0 0 0 0 0 0
1 22 113 29 40 19 20 0 0 0 0 0 0 0 5 20 5 0 0 0 0 7 15 21 14 5 10 7 1 1 0 0 0 0 0 0 0 0 0 0 0 0 0
1 11 117 151 105 79 116 51 2 4 0 0 0 0 0 0 6 0 0 0 0 0 2 34 33 25 15 8 7 8 8 6 1 0 0 0 0 0 0 0 0 0 0
8 51 108 163 204 146 173 18 23 1 3 1 0 0 0 0 0 0 0 0 0 0 0 1 19 22 25 22 14 11 14 9 3 4 1 0 0 0 0 0 0 0 0
15 90 78 92 78 32 153 75 51 60 8 1 0 0 0 0 0 0 0 0 0 0 0 0 0 0 1 21 35 24 37 31 15 5 9 7 3 0 0 0 0 0 0
76 128 132 195 161 130 121 195 178 167 131 100 11 0 0 0 0 0 0 0 0 0 0 0 0 0 0 2 22 19 40 33 52 57 24 12 16 20 7 0 0 0 0
66 78 88 132 164 163 157 173 157 142 118 91 32 13 7 1 0 0 0 0 0 0 0 0 0 0 0 0 0 8 13 35 50 73 87 93 91 72 34 0 2 7 9
32 58 71 99 143 155 169 182 160 144 125 122 117 59 48 33 5 0 0 0 0 0 0 0 0 0 0 0 0 0 0 0 68 142 118 99 112 92 87 61 51 36 17
55 72 83 96 92 123 217 196 201 174 149 72 134 119 169 196 57 54 12 0 0 0 0 0 0 0 0 0 0 0 0 0 0 46 103 71 41 79 100 83 78 76 50
25 56 80 133 127 126 189 180 166 151 109 62 78 42 77 98 122 45 42 1 0 0 0 0 0 0 0 0 0 0 0 0 0 0 21 18 0 1 0 0 16 35 68
43 20 46 109 122 179 183 106 106 77 62 24 36 87 70 43 76 54 69 49 9 0 0 0 0 0 0 0 0 0 0 0 0 0 0 0 0 0 0 0 0 2 3
1 30 18 51 42 57 159 168 74 59 56 23 4 21 38 89 92 41 33 5 34 7 0 0 0 0 0 0 0 0 0 0 0 0 0 0 0 0 0 0 0 0 0
0 3 14 12 22 32 26 8 23 48 39 29 20 27 14 42 61 44 25 39 10 0 0 0 0 0 0 0 0 0 0 0 0 0 0 0 0 0 0 0 0 0 0
0 0 13 28 2 0 3 2 14 18 25 25 31 34 45 49 75 64 62 39 25 6 0 0 0 0 0 0 0 0 0 0 0 0 0 0 0 0 0 0 0 0 0
0 0 3 26 13 6 8 7 8 8 27 25 25 30 24 35 71 72 78 45 10 7 10 0 0 0 0 0 0 0 0 0 0 0 0 0 0 0 0 0 0 0 0
2 0 0 2 2 3 0 13 13 14 11 9 21 21 47 72 70 70 66 63 4 1 15 4 0 0 0 0 0 0 0 0 0 0 0 0 0 0 0 0 0 0 0
0 0 0 0 0 0 5 4 5 6 5 1 1 27 22 19 38 65 76 59 42 29 31 16 0 0 0 0 0 0 0 0 0 0 0 0 0 0 0 0 0 0 0
0 0 0 0 0 0 0 0 0 0 0 0 0 2 5 14 22 48 52 46 41 10 3 4 2 0 0 0 0 0 0 0 0 0 0 0 0 0 0 0 0 0 0
4 0 0 0 0 0 0 0 0 0 0 0 0 5 6 7 5 15 10 9 3 0 0 0 0 0 0 0 0 0 0 0 0 0 0 0 0 0 0 0 0 0 0
21 0 1 0 0 0 0 0 0 0 0 2 3 3 1 0 1 6 0 0 0 0 0 0 0 1 0 0 0 0 0 0 0 0 0 0 0 0 0 0 0 0 0
60 46 29 12 6 0 0 0 0 0 0 0 0 0 0 0 0 0 0 0 0 0 0 0 0 0 0 0 0 0 0 0 0 0 0 0 0 0 0 0 0 0 0
95 87 74 65 45 19 1 0 0 0 0 0 1 0 0 0 0 0 0 1 1 0 0 0 0 0 0 0 0 0 0 0 0 0 0 0 0 0 0 0 0 0 0
107 82 87 79 75 67 48 0 0 0 0 0 0 0 1 0 0 1 0 0 0 0 0 0 0 0 0 0 0 1 0 0 0 0 0 0 0 0 0 0 0 0 0
131 123 104 95 77 81 28 0 0 0 0 0 0 0 1 1 1 0 0 1 1 1 1 2 1 1 2 1 1 0 0 0 0 0 0 0 0 0 0 0 0 0 0
128 118 54 0 1 0 0 1 0 0 1 0 0 0 0 0 0 0 0 0 2 1 0 0 0 0 1 0 0 0 0 0 0 0 0 0 0 0 0 0 0 0 0

GFSMA_con_sbcape_075.txt.gz
CAPE
0 0 0 0 0 0 0 0 0 0 0 0 0 0 0 0 0 0 0 10 19 21 13 11 8 5 4 4 4 3 2 1 0 0 0 0 0 0 0 0 0 0 0
0 0 0 0 0 0 0 0 0 0 0 0 0 0 0 0 0 0 0 0 11 12 21 10 7 5 5 2 1 1 1 1 0 0 0 0 0 0 0 0 0 0 0
0 0 0 0 0 0 0 0 0 0 0 0 0 0 0 0 0 0 0 0 0 3 14 17 12 7 8 4 0 0 0 0 0 0 0 0 0 0 0 0 0 0 0
0 0 0 0 0 0 0 0 0 0 0 0 0 0 0 0 0 0 0 0 0 0 0 4 10 11 11 9 5 4 2 0 0 0 0 0 0 0 0 0 0 0 0
0 0 0 0 12 6 16 2 3 0 0 0 0 0 0 0 0 0 0 0 0 0 0 0 2 10 23 23 9 13 12 10 2 1 2 0 0 0 0 0 0 0 0
0 0 16 37 57 36 66 19 9 0 0 0 0 0 0 0 0 0 0 0 0 0 0 0 0 0 1 27 34 16 21 12 14 13 11 7 4 1 1 1 0 0 0
0 0 20 29 63 85 37 7 1 0 0 0 0 0 0 0 0 0 0 0 0 0 0 0 0 0 0 0 26 23 28 28 32 26 16 9 5 14 5 0 0 0 0
0 0 1 4 45 39 46 10 27 29 6 0 0 0 0 0 0 0 0 0 0 0 0 0 0 0 0 0 0 13 22 52 68 77 92 45 25 23 19 15 1 6 10
0 0 0 3 11 26 18 17 43 34 39 8 0 1 0 0 0 0 0 0 0 0 0 0 0 0 0 0 0 0 0 0 50 137 126 110 86 70 62 72 42 10 19
0 0 0 0 6 5 8 56 52 44 38 12 19 37 23 10 17 0 0 0 0 0 0 0 0 0 0 0 0 0 0 0 0 19 130 149 134 125 116 97 110 101 98
0 0 0 0 17 47 81 120 104 99 54 36 24 2 1 10 18 0 0 0 0 0 0 0 0 0 0 0 0 0 0 0 0 0 11 99 124 111 116 115 140 145 132
0 0 0 2 1 22 77 85 119 107 77 14 30 31 12 8 19 8 3 0 0 0 0 0 0 0 0 0 0 0 0 0 0 0 0 0 43 68 46 49 33 23 28
0 0 4 9 20 12 38 51 89 85 57 37 16 16 28 20 34 36 18 14 12 0 1 0 0 0 0 0 0 0 0 0 0 0 0 0 0 2 1 7 1 0 0
0 5 0 18 15 22 72 59 45 48 42 28 31 11 8 8 17 20 28 8 1 0 0 3 0 0 0 0 0 0 0 0 0 0 0 0 0 0 0 0 0 0 0
0 0 0 0 3 14 16 21 39 36 37 33 19 7 10 2 9 8 7 27 24 11 1 0 0 0 0 0 0 0 0 0 0 0 0 0 0 0 0 0 0 0 0
0 0 2 0 0 4 15 23 12 18 29 26 17 5 6 1 3 12 15 24 34 37 34 0 0 0 0 0 0 0 0 0 0 0 0 0 0 0 0 0 0 0 0
0 0 0 3 2 0 2 8 8 9 13 9 6 1 1 0 0 5 7 12 15 21 21 0 0 0 0 0 0 0 0 0 0 0 0 0 0 0 0 0 0 0 0
0 0 0 0 0 0 0 0 0 0 1 0 1 6 0 1 0 0 2 2 7 0 0 0 3 0 0 0 0 0 0 0 0 0 0 0 0 0 0 0 0 0 0
0 0 0 0 0 0 0 0 0 0 0 0 0 0 0 0 0 0 0 0 5 5 5 13 8 2 0 0 0 0 0 0 0 0 0 0 0 0 0 0 0 0 0
0 0 0 0 0 0 0 0 0 0 0 0 0 0 0 0 0 0 0 0 9 21 22 6 4 0 0 0 0 0 0 0 0 0 0 0 0 0 0 0 0 0 0
0 0 0 0 0 0 0 0 0 0 0 0 0 0 0 0 0 0 0 0 3 23 27 8 0 0 0 0 0 0 0 0 0 0 0 0 0 0 0 0 0 0 0
0 0 0 0 0 0 0 0 0 0 0 0 0 0 0 0 0 0 0 0 5 11 12 4 0 0 0 0 0 0 0 0 0 1 0 0 0 0 0 2 5 0 0
0 0 0 0 0 0 0 0 0 0 0 0 0 0 0 0 0 0 0 0 0 0 1 0 0 0 0 0 0 0 0 0 0 1 0 0 0 1 4 5 0 0 0
35 29 23 10 6 4 0 0 0 0 0 0 0 0 0 0 0 0 1 0 0 0 0 0 0 0 0 0 0 0 0 0 0 2 2 0 1 0 0 0 0 0 0
33 37 39 18 6 23 10 0 0 0 0 0 0 0 0 0 0 1 0 0 0 0 2 4 3 2 2 2 1 0 0 0 0 0 0 0 0 0 0 0 0 0 0
8 9 1 0 0 0 0 0 0 0 0 0 0 0 0 0 1 0 0 0 0 0 0 0 0 0 0 0 1 0 0 0 0 0 0 0 0 0 0 0 0 0 0

GFSMA_con_sbcape_078.txt.gz
CAPE
2 2 0 0 0 0 0 0 0 0 0 0 0 0 0 0 0 0 0 10 13 13 12 13 9 10 10 6 5 5 3 4 3 3 1 1 0 0 0 0 0 0 0
0 0 0 0 0 0 0 0 0 0 0 0 0 0 0 0 0 0 0 0 5 13 14 8 5 6 5 6 5 2 2 2 0 0 0 0 0 0 0 0 0 0 0
0 0 0 0 0 0 0 0 0 0 0 0 0 0 0 0 0 0 0 0 0 1 11 14 9 5 4 4 4 3 5 1 0 0 0 0 0 0 0 0 0 0 0
0 0 0 0 0 0 0 0 0 0 0 0 0 0 0 0 0 0 0 0 0 0 0 9 13 11 6 3 3 3 2 0 3 0 0 0 0 0 0 0 0 0 0
0 0 0 0 0 0 0 0 0 0 0 0 0 0 0 0 0 0 0 0 0 0 0 0 1 3 10 8 7 7 7 2 3 0 1 0 0 0 0 0 0 0 0
0 0 0 0 0 0 0 0 0 0 0 0 0 0 0 0 0 0 0 0 0 0 0 0 0 0 0 11 16 12 10 15 14 12 9 3 0 1 1 0 0 0 0
0 0 0 0 0 0 0 0 0 0 0 0 0 0 0 0 0 0 0 0 0 0 0 0 0 0 0 0 27 22 37 44 36 27 19 7 9 13 5 3 2 0 0
0 0 0 0 14 0 0 0 0 0 0 0 0 0 0 0 0 0 0 0 0 0 0 0 0 0 0 0 0 30 43 64 104 67 57 27 18 9 11 8 1 4 6
0 0 0 7 19 12 1 0 0 1 0 0 0 0 0 0 0 0 0 0 0 0 0 0 0 0 0 0 0 0 0 0 96 274 227 139 81 60 44 46 34 26 13
0 0 1 11 9 21 6 1 0 0 0 0 0 2 1 0 1 0 0 0 0 0 0 0 0 0 0 0 0 0 0 0 0 31 174 274 170 142 112 94 76 83 80
0 0 0 3 10 12 19 24 25 8 0 0 0 8 3 0 0 0 0 0 0 0 0 0 0 0 0 0 0 0 0 0 0 0 27 101 182 208 185 152 131 115 108
0 0 0 0 2 6 1 8 24 4 27 30 9 4 1 12 0 0 0 0 0 0 0 0 0 0 0 0 0 0 0 0 0 0 0 8 59 110 173 184 173 186 178
0 0 0 0 0 2 0 1 25 36 25 23 16 5 13 15 5 3 0 0 1 0 0 0 0 0 0 0 0 0 0 0 0 0 0 0 0 4 42 94 107 136 150
0 0 0 0 0 0 0 11 26 52 45 26 14 6 11 9 10 14 23 15 3 0 0 0 0 0 0 0 0 0 0 0 0 0 0 0 0 0 0 1 23 8 37
0 0 0 0 0 0 12 32 47 48 42 29 35 11 20 16 2 2 2 13 24 10 2 0 0 0 0 0 0 0 0 0 0 0 0 0 0 0 0 0 0 0 0
0 0 0 0 0 0 7 40 53 44 40 24 19 18 18 15 11 3 6 4 16 7 9 0 0 0 0 0 0 0 0 0 0 0 0 0 0 0 0 0 0 0 0
0 0 0 0 0 0 0 4 25 19 20 21 16 7 8 7 13 4 0 0 3 4 3 0 0 0 0 0 0 0 0 0 0 0 0 0 0 0 0 0 0 0 0
0 0 0 0 0 0 1 2 2 0 0 3 0 0 0 0 0 0 0 1 0 0 0 0 0 0 0 0 0 0 0 0 0 0 0 0 0 0 0 0 0 0 0
0 0 0 0 0 0 0 0 0 0 0 0 0 0 0 0 0 0 1 1 0 0 0 1 0 0 0 0 0 0 0 0 0 0 0 0 0 0 0 0 0 0 0
0 0 0 0 0 0 0 0 0 0 0 0 0 0 0 0 0 0 0 0 0 0 0 0 1 2 1 0 0 0 0 0 0 0 0 0 0 0 0 0 0 0 0
0 0 0 0 0 0 0 0 0 0 0 0 0 0 0 0 0 0 0 0 0 0 0 0 7 12 7 0 0 0 0 0 1 0 0 0 0 0 0 0 0 0 1
1 0 0 0 0 0 0 0 0 0 0 0 0 0 0 0 0 0 0 0 0 0 0 0 7 13 13 6 0 0 0 1 0 0 0 0 0 0 2 1 0 0 0
0 0 0 0 0 0 0 0 0 0 0 0 0 0 0 0 0 0 0 0 0 0 0 3 10 10 5 4 0 1 1 0 0 1 0 0 0 0 2 4 1 2 6
0 0 0 0 0 0 0 0 0 0 0 0 0 0 0 0 0 0 0 0 0 0 0 0 0 0 0 0 0 0 0 0 0 0 0 0 1 0 4 4 3 5 4
0 0 0 0 0 0 0 0 0 0 0 0 0 0 0 0 0 0 0 1 0 0 2 3 3 2 1 1 0 0 0 0 0 0 1 0 0 0 0 0 3 5 1
2 0 1 1 0 1 0 0 0 0 0 0 0 0 0 0 1 1 0 0 0 0 0 0 0 0 0 1 0 0 0 0 0 1 1 0 0 0 0 0 0 0 0

GFSMA_con_sbcape_081.txt.gz
CAPE
88 131 49 0 0 0 0 0 0 0 0 0 0 0 0 0 0 0 0 11 15 22 17 13 13 11 11 11 10 7 7 7 9 6 5 2 0 0 0 0 0 0 0
137 57 0 0 0 0 0 0 0 0 0 0 0 0 0 0 0 0 0 0 7 17 22 11 11 11 11 11 7 6 4 4 4 3 1 0 0 0 0 0 0 0 0
58 16 0 0 0 0 0 0 0 0 0 0 0 0 0 0 0 0 0 0 1 5 13 17 12 10 11 8 5 4 2 2 2 2 0 0 0 0 0 0 0 0 0
8 0 0 0 0 0 0 0 0 0 0 0 0 0 0 0 0 0 0 0 0 0 4 14 14 17 11 8 6 4 3 2 2 0 0 0 0 0 0 0 0 0 0
0 0 0 0 0 0 0 0 0 0 0 0 0 0 0 0 0 0 0 0 0 0 0 4 7 9 14 10 5 5 4 6 4 2 1 0 0 0 0 0 0 0 0
0 0 0 0 0 0 0 0 0 0 0 0 0 0 0 0 0 0 0 0 0 0 0 0 0 0 1 9 7 7 10 13 7 9 6 3 1 0 0 0 0 0 0
0 0 0 0 0 0 0 0 0 0 0 0 0 0 0 0 0 0 0 0 0 0 0 0 0 0 0 0 17 10 13 19 26 13 11 11 9 12 6 3 1 0 0
0 0 0 0 0 0 0 0 0 0 0 0 0 0 0 0 0 0 0 0 0 0 0 0 0 0 0 0 0 30 47 69 119 80 80 20 6 9 6 3 4 4 6
0 0 0 0 0 0 0 0 0 0 0 0 0 0 0 0 0 0 0 0 0 0 0 0 0 0 0 0 0 0 0 1 106 302 242 132 76 60 41 45 39 25 18
0 0 0 0 0 0 10 1 0 0 0 0 0 0 0 0 0 0 0 0 0 0 0 0 0 0 0 0 0 0 0 0 0 14 137 284 223 142 102 111 103 99 87
0 0 0 7 14 12 18 12 5 8 0 0 0 0 0 0 0 0 0 0 0 0 0 0 0 0 0 0 0 0 0 0 0 0 0 51 138 261 211 145 152 152 146
1 0 0 1 19 15 21 17 25 17 3 0 0 0 2 12 13 0 0 0 0 0 0 0 0 0 0 0 0 0 0 0 0 0 0 0 29 74 117 157 207 228 192
1 0 0 0 0 5 2 10 25 34 24 1 0 0 0 9 0 0 0 0 0 0 0 0 0 0 0 0 0 0 0 0 0 0 0 0 0 0 10 59 115 177 250
0 0 0 0 0 0 0 1 3 24 13 0 0 0 7 1 0 1 0 4 0 0 0 0 0 0 0 0 0 0 0 0 0 0 0 0 0 0 0 0 7 44 102
0 0 0 0 0 0 0 2 6 1 1 3 1 0 13 11 2 8 2 5 20 1 0 0 0 0 0 0 0 0 0 0 0 0 0 0 0 0 0 0 0 0 0
0 0 0 0 0 0 0 0 0 0 4 6 2 0 1 4 1 1 3 2 3 9 8 0 0 0 0 0 0 0 0 0 0 0 0 0 0 0 0 0 0 0 0
0 0 0 0 0 0 0 0 3 0 3 9 7 6 9 18 11 8 0 0 3 7 11 0 0 0 0 0 0 0 0 0 0 0 0 0 0 0 0 0 0 0 0
0 0 0 0 0 0 0 0 1 0 2 16 8 14 16 20 20 8 0 1 3 1 5 5 2 1 0 0 0 0 0 0 0 0 0 0 0 0 0 0 0 0 0
0 0 0 0 0 0 0 0 0 0 0 0 5 4 9 10 2 3 0 0 0 0 3 3 2 5 1 0 0 0 0 0 0 0 0 0 0 0 0 0 0 0 0
0 0 0 0 0 0 0 0 0 0 0 0 0 3 0 0 0 0 0 0 0 1 2 1 2 0 0 0 0 0 0 0 0 0 0 0 0 0 0 0 0 0 0
0 0 0 0 0 0 0 0 0 0 0 0 0 0 0 0 0 0 0 0 0 0 0 0 1 0 0 1 0 0 0 0 0 0 0 0 0 0 0 0 0 0 0
0 0 1 0 0 0 0 0 0 0 0 0 0 0 0 0 0 0 0 0 0 0 0 0 0 0 0 0 0 0 0 1 0 0 0 0 0 0 0 0 1 2 2
0 0 0 0 0 0 0 0 0 0 0 0 0 0 0 0 0 0 0 0 0 0 0 0 0 0 0 0 1 0 0 0 0 0 0 0 0 0 2 4 2 2 2
0 0 0 0 0 0 0 0 0 0 0 0 0 0 0 0 0 0 0 0 0 0 0 0 0 0 0 0 0 0 0 0 0 0 0 0 0 0 1 2 3 4 4
1 1 1 0 0 2 1 1 0 0 0 0 0 0 0 0 0 0 0 0 0 0 2 3 3 0 0 1 0 0 0 0 0 0 0 0 0 0 0 0 3 7 10
3 1 1 1 0 1 2 0 0 0 0 0 1 0 1 0 0 0 1 0 1 0 0 0 0 0 0 1 1 0 0 0 0 0 0 1 1 0 1 0 0 0 0

GFSMA_con_sbcape_084.txt.gz
CAPE
34 14 125 54 53 0 0 0 0 0 0 0 0 0 0 0 0 0 0 15 24 39 22 21 14 20 15 14 10 10 11 11 10 6 6 3 2 1 0 0 1 1 0
72 70 101 34 0 0 0 0 0 0 0 0 0 0 0 0 0 0 0 4 16 33 18 14 11 19 16 13 11 9 10 9 7 6 3 1 0 0 0 0 0 0 0
18 77 28 0 0 0 0 0 0 0 0 0 0 0 0 0 0 0 0 0 4 14 24 28 27 16 13 14 10 9 9 9 6 5 0 0 0 0 0 0 0 0 0
30 32 18 20 0 0 0 0 0 0 0 0 0 0 0 0 0 0 0 0 0 0 10 19 25 29 14 10 12 11 9 8 6 2 0 0 0 0 0 0 0 0 0
62 67 21 0 0 0 0 0 0 0 0 0 0 0 0 0 0 0 0 0 0 0 0 9 12 13 20 17 10 10 10 6 5 3 0 0 0 0 0 0 0 0 0
52 43 0 0 0 0 0 0 0 0 0 0 0 0 0 0 0 0 0 0 0 0 0 0 1 3 5 13 10 11 10 14 11 7 2 1 0 0 0 0 0 0 0
37 0 0 0 0 0 0 0 0 0 0 0 0 0 0 0 0 0 0 0 0 0 0 0 0 0 0 2 11 8 10 13 14 8 13 10 9 6 0 0 0 0 0
0 0 0 0 0 0 0 0 0 0 0 0 0 0 0 0 0 0 0 0 0 0 0 0 0 0 0 0 0 18 21 51 69 47 33 10 1 0 2 0 3 2 0
0 0 0 0 0 0 0 0 0 0 0 0 0 0 0 0 0 0 0 0 0 0 0 0 0 0 0 0 0 0 3 2 95 302 276 164 35 5 6 2 4 10 12
0 0 0 0 0 0 0 0 0 0 0 0 0 0 0 0 0 0 0 0 0 0 0 0 1 0 0 0 0 0 0 0 0 9 174 314 274 178 98 58 58 50 49
0 0 0 0 0 0 0 2 3 2 0 0 0 0 0 0 0 0 0 0 0 0 0 0 0 0 0 0 0 0 0 0 0 0 0 43 141 263 279 204 140 125 127
3 0 0 0 0 0 2 7 23 20 4 0 0 0 0 0 0 1 0 0 0 0 0 0 0 0 0 0 0 0 0 0 0 0 0 0 25 77 115 148 255 255 209
2 3 0 0 7 21 32 44 51 39 16 3 0 0 0 0 4 7 3 3 1 0 0 0 0 0 0 0 0 0 0 0 0 0 0 0 0 3 25 63 102 127 158
2 1 2 1 3 10 10 43 77 53 39 19 6 0 0 0 0 1 13 16 2 0 0 0 0 0 0 0 0 0 0 0 0 0 0 0 0 0 0 0 1 12 43
1 1 0 0 0 0 1 0 24 34 23 20 20 4 0 0 0 0 7 12 20 12 3 0 0 0 0 0 0 0 0 0 0 0 0 0 0 0 0 0 0 0 0
0 0 0 0 0 0 0 0 0 1 4 8 0 0 0 1 0 5 9 9 6 13 9 0 0 0 0 0 0 0 0 0 0 0 0 0 0 0 0 0 0 0 0
0 0 0 0 0 0 0 0 0 0 0 0 0 1 1 0 2 5 0 2 2 1 0 1 0 0 0 0 0 0 0 0 0 0 0 0 0 0 0 0 0 0 0
0 0 0 0 0 0 0 0 0 0 0 0 0 0 0 0 1 3 1 2 5 2 9 3 1 0 0 0 0 0 0 0 0 0 0 0 0 0 0 0 0 0 0
0 0 0 0 0 0 0 0 0 0 0 0 0 0 2 0 1 3 1 15 17 11 7 2 0 2 1 0 0 0 0 0 0 0 0 0 0 0 0 0 0 0 0
0 0 0 0 0 0 0 0 0 0 0 0 0 0 0 0 1 5 4 4 5 7 4 1 4 4 6 5 0 0 0 0 0 0 0 0 0 0 0 0 0 0 0
0 0 0 0 0 0 0 0 0 0 0 0 0 0 0 0 0 0 1 0 0 0 0 1 2 1 0 0 0 0 0 0 0 0 0 0 0 0 0 0 0 0 0
0 0 0 0 0 0 0 0 0 0 0 0 0 0 0 0 0 0 0 0 0 0 0 0 0 0 0 0 0 0 0 0 0 1 0 0 0 0 0 0 0 0 0
0 0 0 0 0 0 0 0 0 0 0 0 0 0 0 0 0 0 0 0 0 0 0 0 0 0 0 0 0 0 0 0 0 0 0 0 0 1 2 3 3 3 4
1 0 0 0 0 0 0 0 0 0 0 0 0 0 0 0 0 0 0 0 0 0 0 0 0 0 0 0 1 1 1 0 0 0 0 0 0 0 1 1 5 5 5
2 2 1 0 1 1 1 0 0 0 1 0 0 0 0 0 0 0 0 0 1 1 2 3 3 2 2 1 0 0 0 0 0 0 0 0 0 1 0 1 3 10 7
1 2 1 2 0 1 2 1 0 0 0 0 0 0 0 0 0 0 0 0 0 1 0 0 0 0 1 1 1 0 0 0 0 0 0 0 1 0 1 4 2 2 2

GFSMA_con_sbcape_087.txt.gz
CAPE
28 86 228 233 73 1 7 170 65 15 10 0 0 0 0 0 0 5 9 21 30 35 21 36 33 33 25 16 15 12 12 11 9 10 9 6 5 3 4 3 3 1 0
47 161 391 118 112 0 15 60 45 1 0 0 0 0 0 0 0 13 13 18 15 31 36 33 32 28 20 15 9 12 12 12 8 7 4 4 3 1 1 1 1 0 0
137 200 153 169 21 0 0 50 33 0 0 0 0 0 0 0 2 15 16 29 18 21 28 48 32 14 13 11 5 13 10 8 8 6 4 1 0 0 0 0 0 0 0
164 125 107 60 5 0 7 7 0 1 0 0 0 0 0 0 15 19 17 26 28 18 8 20 28 31 24 7 11 13 8 9 6 6 2 0 0 0 0 0 0 0 0
98 114 43 10 0 0 10 0 0 0 4 1 0 0 0 0 10 11 9 19 22 22 14 12 17 21 20 24 15 16 13 9 6 6 3 1 0 0 0 0 0 0 0
137 96 26 1 1 3 1 0 0 0 0 1 0 1 4 5 8 12 8 8 21 25 21 18 16 10 11 25 16 14 18 16 10 7 5 3 0 0 0 0 0 0 0
76 43 1 1 1 13 0 0 0 0 5 0 3 12 9 7 7 8 9 5 6 13 10 11 11 8 6 8 16 11 15 12 10 10 8 5 3 5 1 0 0 0 0
81 2 0 1 1 29 0 0 0 1 1 4 0 1 8 9 13 6 7 4 10 9 8 3 2 2 1 3 3 17 20 26 52 38 26 12 4 3 0 0 3 0 0
46 1 0 1 10 2 0 0 0 0 0 2 0 25 36 39 5 8 10 6 2 4 4 3 0 5 13 19 4 5 4 6 121 299 274 120 27 15 10 0 6 2 0
2 0 0 1 0 0 0 0 0 0 28 22 13 0 23 40 80 51 0 1 2 1 2 0 2 10 11 6 9 5 20 4 4 59 221 332 307 221 100 57 39 29 23
1 0 0 0 0 0 0 0 0 0 43 46 15 15 16 18 43 57 68 17 16 11 12 25 29 10 6 28 37 43 0 0 0 0 16 81 175 306 337 274 164 116 74
2 0 0 0 0 0 0 0 0 0 6 38 68 111 57 41 36 88 67 82 113 65 60 58 35 25 20 36 38 25 5 0 0 0 0 0 26 79 125 196 306 353 278
3 9 2 0 0 0 0 0 0 0 0 36 60 81 87 112 109 84 111 88 93 60 21 15 21 20 0 51 55 12 1 0 0 0 0 0 0 1 29 76 119 174 203
3 0 0 0 0 0 0 0 3 16 30 82 75 76 91 78 84 83 87 140 123 129 73 115 0 0 0 0 1 0 0 0 0 0 0 0 0 0 0 0 2 21 56
3 3 0 0 0 0 0 0 0 1 24 70 82 90 90 64 112 91 108 150 134 131 79 72 38 0 0 0 0 0 0 0 0 0 0 0 0 0 0 0 0 0 0
4 5 4 3 2 2 0 0 0 0 8 21 44 37 23 59 65 49 104 103 109 119 87 50 0 0 0 0 0 0 0 0 0 0 0 0 0 0 0 0 0 0 0
0 1 2 2 5 4 0 0 0 0 13 19 15 10 4 6 5 2 1 25 76 52 74 1 14 0 0 0 0 0 0 0 0 0 0 0 0 0 0 0 0 0 0
4 2 1 1 1 1 1 3 0 0 5 15 14 17 1 2 0 4 0 5 8 8 16 46 131 181 104 58 90 71 13 4 21 0 0 0 0 0 0 0 0 0 0
0 3 12 14 6 2 0 0 0 0 0 2 0 0 0 0 0 36 81 55 20 19 57 101 127 111 118 117 61 47 22 69 43 0 0 0 0 0 0 0 0 0 0
0 0 2 4 6 9 10 3 0 1 1 0 1 14 27 14 25 42 8 4 0 5 10 10 12 9 50 70 108 96 72 75 32 3 0 0 0 0 0 0 0 0 0
0 0 0 2 5 8 6 8 1 0 0 0 0 3 15 8 0 21 42 54 88 64 42 68 65 58 19 16 28 29 12 5 36 6 7 16 17 18 1 0 0 0 0
1 0 0 0 0 0 0 0 0 0 1 2 6 11 9 0 0 0 0 0 0 28 4 4 4 3 1 0 0 0 0 1 0 3 11 7 0 4 5 6 1 1 0
2 1 0 0 0 0 0 0 0 0 2 0 1 0 0 0 0 0 0 0 0 0 0 0 0 0 0 0 0 0 0 1 1 0 1 1 3 2 4 4 5 4 4
1 0 1 0 0 0 0 0 0 0 0 0 0 0 0 0 0 0 0 0 0 0 0 1 0 1 1 1 1 0 0 0 0 0 0 0 0 2 2 4 8 9 9
1 3 2 1 1 1 1 0 0 0 2 1 0 2 0 0 0 0 0 0 0 1 1 2 2 2 3 3 1 1 0 0 0 0 2 2 2 2 2 2 9 8 7
1 2 2 2 1 2 2 0 0 0 1 2 2 2 2 3 1 0 0 0 0 0 2 2 2 1 3 2 2 4 1 2 2 0 2 2 4 7 5 12 12 11 12

GFSMA_con_sbcape_090.txt.gz
CAPE
479 280 117 197 481 184 104 84 183 316 313 237 197 193 138 55 41 20 24 19 38 61 31 21 37 25 20 21 18 19 10 10 8 9 6 5 5 5 5 6 3 1 0
252 180 214 407 544 231 117 98 134 311 280 232 222 172 71 31 20 5 16 22 26 41 44 46 39 33 32 28 23 6 10 12 12 8 6 5 3 3 3 2 2 0 0
148 200 180 166 392 186 35 72 215 303 250 200 179 124 29 16 9 8 15 24 15 19 40 57 51 38 28 26 20 7 13 16 12 9 6 6 4 0 0 2 1 0 0
81 444 150 108 235 94 29 65 202 273 207 172 138 96 14 9 12 25 15 21 20 16 26 40 39 41 32 24 19 13 9 13 11 11 7 4 2 0 0 0 0 0 0
77 188 260 143 67 16 1 87 162 213 166 148 93 48 19 28 18 9 8 57 34 18 23 16 18 23 27 29 15 16 15 10 11 10 7 3 1 0 0 0 0 0 0
93 141 90 49 4 2 1 59 165 201 187 140 64 34 75 25 17 9 12 30 37 23 21 23 18 15 12 29 22 11 15 14 12 10 7 4 2 0 0 0 0 0 0
65 136 69 4 1 3 2 127 160 214 150 159 74 60 88 20 21 29 34 30 32 33 30 27 23 14 4 12 18 9 12 13 13 10 10 7 5 7 3 0 0 0 0
88 120 28 2 4 1 0 201 188 176 180 172 93 78 40 48 22 23 29 24 38 38 30 28 42 15 6 1 3 11 10 23 49 25 23 15 7 7 1 0 0 0 0
112 51 3 4 6 8 2 130 201 150 110 162 136 93 67 26 42 31 28 19 21 27 22 20 21 16 14 2 0 2 1 9 69 205 222 123 71 42 24 18 4 1 0
48 17 2 2 3 11 45 130 221 212 196 135 136 103 59 44 92 87 83 50 20 15 31 19 20 17 21 16 2 4 1 0 0 39 176 316 298 184 124 87 60 34 20
6 4 2 3 2 16 109 161 187 189 113 154 113 140 161 183 162 100 107 109 108 75 89 114 51 41 37 53 83 60 1 0 0 0 46 127 220 325 331 312 175 147 123
5 1 1 1 0 2 73 89 43 196 194 212 148 149 153 133 177 143 100 164 164 158 146 120 100 104 91 102 52 21 3 0 0 0 5 20 52 95 140 203 311 375 341
1 1 1 0 0 6 40 28 48 143 130 202 236 208 213 168 164 171 149 82 116 136 165 149 143 170 157 136 102 3 6 0 0 0 0 0 0 0 11 43 75 129 207
3 3 2 1 5 6 6 9 28 27 64 140 176 183 204 224 195 168 137 108 99 85 93 77 93 127 146 148 77 1 33 0 0 0 0 0 0 0 0 0 0 2 23
5 9 6 12 11 0 0 9 8 0 31 97 129 189 170 189 186 162 139 96 118 100 61 113 171 98 63 41 13 10 22 1 0 0 0 0 0 0 0 0 0 0 0
5 3 2 3 1 0 0 0 0 0 0 0 39 102 68 114 135 152 130 114 132 133 95 130 181 129 117 1 3 0 5 0 0 0 0 0 0 0 0 0 0 0 0
5 3 2 2 0 0 0 0 0 2 30 4 2 54 41 79 59 98 117 97 60 124 73 89 199 204 167 139 89 19 1 16 54 0 0 0 0 0 0 0 0 0 0
7 7 3 6 5 2 0 0 0 0 0 0 6 7 10 23 24 15 13 18 18 14 19 29 21 19 21 29 39 124 115 44 96 2 0 0 0 0 0 0 0 0 0
11 6 5 5 5 3 1 0 0 0 0 0 12 27 10 15 11 14 5 3 2 66 77 112 78 77 145 235 286 236 220 344 197 23 0 0 0 0 0 0 0 0 0
27 35 31 19 14 10 9 4 1 1 1 0 1 0 1 5 7 8 7 28 2 29 49 15 7 19 63 136 221 236 254 309 185 75 28 3 0 0 0 0 0 0 0
11 37 41 45 51 41 17 12 13 9 4 19 34 12 22 2 4 30 121 91 126 174 200 230 148 96 84 135 124 103 52 28 53 216 78 23 1 1 3 2 2 1 0
1 1 2 27 48 9 0 0 2 44 39 41 50 59 60 0 0 0 0 0 0 132 60 49 22 3 0 0 0 0 1 2 6 0 0 1 0 1 1 3 3 2 3
45 10 6 8 0 0 0 0 0 0 29 31 20 8 5 0 0 0 0 0 0 0 1 0 0 0 0 1 1 0 0 0 0 0 0 0 1 2 4 7 7 7 6
1 1 1 0 0 0 0 0 0 0 1 0 0 0 0 0 0 0 0 0 1 1 0 1 1 1 1 1 1 2 2 0 0 1 1 1 1 2 5 5 7 8 7
2 3 2 1 1 1 1 0 0 1 1 1 1 2 0 0 1 0 0 1 0 2 4 5 4 4 3 2 1 1 1 2 3 1 2 4 3 2 3 5 6 3 3
3 2 2 4 2 2 4 0 0 1 1 1 1 2 1 2 0 0 1 0 1 3 0 2 2 1 6 3 1 6 7 3 2 2 4 4 6 8 6 13 10 12 16

GFSMA_con_sbcape_093.txt.gz
CAPE
1612 1152 518 529 663 325 120 87 119 165 168 278 320 296 243 224 78 82 14 0 28 52 35 17 19 29 14 25 25 19 11 8 6 12 9 7 8 6 6 0 1 1 1
1399 864 563 367 262 201 114 94 103 107 139 135 298 195 186 127 42 33 13 9 19 40 47 35 21 30 30 27 29 18 8 4 6 4 12 8 7 3 2 3 0 0 0
1158 817 445 439 805 177 279 84 80 61 99 140 228 229 93 42 27 15 20 25 23 14 33 44 61 34 27 26 25 18 12 6 10 7 9 8 7 4 2 1 1 0 0
855 525 170 481 258 170 148 74 65 59 67 107 179 105 50 44 27 16 20 32 23 8 20 37 50 44 41 26 17 12 6 12 12 8 6 8 6 2 0 1 1 0 0
639 341 736 226 122 42 92 162 52 57 69 135 127 140 58 17 20 14 43 19 15 10 27 19 19 24 33 39 20 7 12 8 10 10 8 4 3 1 0 0 0 0 0
485 620 327 120 282 39 71 100 47 49 104 148 94 65 49 44 15 13 19 15 4 16 15 34 17 18 16 27 31 10 14 14 9 9 8 6 3 0 0 0 0 0 0
179 110 85 137 91 1 27 24 41 42 63 282 148 90 129 112 61 26 31 27 33 34 15 43 29 18 1 10 17 11 10 13 9 9 6 7 6 7 3 0 0 0 0
124 23 97 59 4 2 5 2 32 32 55 154 124 80 77 51 67 41 33 28 63 30 30 46 19 15 13 0 3 11 9 13 14 10 19 16 13 9 3 0 0 0 0
65 48 53 9 1 1 7 4 40 42 105 94 125 18 51 39 36 20 54 21 70 27 35 22 18 13 20 14 0 0 0 0 35 128 126 65 32 17 14 16 24 19 6
11 21 10 3 4 2 2 4 37 47 92 111 137 150 83 55 41 33 24 36 33 35 62 21 17 9 7 1 7 0 0 0 0 22 173 238 186 116 89 82 82 78 54
11 17 1 3 4 2 3 13 41 118 112 161 146 137 162 127 150 104 45 65 35 26 26 75 33 44 36 48 68 52 0 0 0 0 9 97 222 295 311 243 196 187 172
5 2 2 6 7 5 8 6 68 91 133 236 219 173 168 132 120 127 120 154 153 110 99 133 160 106 74 72 27 1 3 0 0 0 0 7 53 128 179 259 337 369 356
2 12 2 2 9 3 6 28 63 172 271 256 278 138 190 222 193 146 98 157 140 131 152 191 167 185 125 139 111 16 8 0 0 0 0 0 7 18 31 56 98 145 181
2 0 7 3 9 7 3 39 120 185 174 227 161 144 150 243 202 178 133 121 102 69 68 132 224 221 213 201 187 64 64 0 0 0 0 0 0 0 0 0 0 0 3
2 1 0 2 3 2 7 31 55 69 93 136 163 196 145 126 208 253 202 139 159 70 71 194 155 196 208 210 130 159 135 37 0 0 0 0 0 0 0 0 0 0 0
3 2 3 2 1 1 0 7 5 31 100 142 102 121 82 146 153 153 137 201 184 102 59 64 121 168 163 33 36 97 131 30 0 0 0 0 0 0 0 0 0 0 0
4 4 5 4 1 1 1 3 5 3 13 3 0 10 20 62 116 184 136 73 146 136 113 91 86 127 68 170 108 51 56 65 77 0 0 0 0 0 0 0 0 0 0
2 2 1 1 1 0 0 0 0 0 0 0 0 0 7 37 67 77 146 108 121 62 32 2 7 2 2 5 54 213 157 77 52 3 0 0 0 0 0 0 0 0 0
6 2 3 4 1 0 0 0 0 0 0 0 1 18 4 49 68 52 31 4 3 0 4 0 0 27 79 135 136 91 88 178 193 94 24 0 0 0 0 0 0 0 0
9 10 9 6 6 5 3 0 0 0 0 0 2 6 22 26 18 21 8 2 0 0 0 9 0 0 20 78 114 125 170 220 234 128 69 0 0 0 0 0 0 0 0
30 19 21 17 11 6 2 1 1 2 0 0 0 2 9 16 2 14 0 13 18 9 61 47 35 65 85 160 207 194 66 43 8 0 0 0 0 0 3 2 2 2 2
29 38 46 50 46 0 0 0 0 4 2 9 1 0 14 0 0 0 0 0 0 0 44 31 19 3 21 9 0 0 0 0 0 1 0 0 0 1 2 3 4 4 4
18 0 0 0 0 0 0 0 0 0 5 0 0 0 0 0 0 0 0 0 0 0 1 1 0 1 1 2 2 0 0 0 0 0 0 0 1 2 4 4 5 4 3
1 2 1 0 0 0 0 0 0 0 0 0 0 0 0 0 0 0 0 0 1 1 1 0 0 0 1 0 1 1 1 0 0 0 1 0 1 2 3 2 2 2 1
1 2 2 1 1 1 0 0 0 0 0 1 2 2 0 0 1 0 0 0 0 0 0 3 4 3 1 1 0 4 2 3 2 2 3 4 3 2 3 4 3 0 0
2 1 1 2 2 2 1 0 0 0 1 1 1 1 1 1 0 0 0 1 1 1 2 2 1 2 1 3 1 4 5 4 5 4 6 6 6 8 5 5 9 12 10

GFSMA_con_sbcape_096.txt.gz
CAPE
1553 1237 1000 520 183 79 151 132 67 31 91 100 132 183 128 62 20 27 23 1 0 7 27 16 13 21 18 22 41 27 5 4 6 13 9 10 20 6 10 7 6 1 1
1613 1201 896 508 376 219 197 72 60 5 32 71 104 154 125 71 26 16 4 0 1 4 33 12 25 11 20 23 33 11 3 2 2 9 9 7 14 16 17 3 0 0 0
1444 1054 836 544 406 307 73 34 39 15 66 81 71 76 138 63 16 12 0 0 2 6 20 43 42 30 20 23 22 15 4 13 6 9 9 6 4 0 6 9 0 0 0
1318 1054 767 574 358 194 131 104 65 76 53 37 32 58 93 13 24 0 0 0 0 9 22 25 36 34 35 25 14 10 11 9 9 7 8 8 4 3 1 0 0 0 0
1216 863 556 507 316 188 136 79 47 46 11 39 37 38 35 17 0 0 0 0 0 0 6 19 15 21 33 40 15 9 9 9 9 7 7 5 5 1 0 0 0 0 0
1046 777 509 346 253 126 98 51 25 11 10 16 160 70 1 1 0 12 5 0 0 0 2 1 5 14 16 32 30 11 10 10 10 8 8 8 4 3 0 0 0 0 0
684 635 378 227 135 68 72 42 19 23 22 47 27 28 28 4 0 10 9 0 0 0 10 11 3 0 1 14 26 20 17 15 13 9 8 9 9 8 3 0 0 0 0
474 431 351 175 28 27 13 45 23 20 30 40 15 27 34 25 43 19 20 15 2 0 0 0 0 0 0 0 0 16 16 19 18 10 18 15 12 5 0 0 0 0 0
331 247 234 112 33 7 29 36 9 3 23 23 9 5 12 19 18 27 29 11 26 13 0 0 0 0 0 0 0 0 0 0 9 63 51 31 30 27 11 2 10 10 5
278 235 125 44 22 3 8 14 6 3 5 15 13 19 3 0 0 11 20 21 28 15 16 7 0 2 0 0 0 0 0 0 0 3 119 157 128 99 67 51 47 50 55
217 134 64 28 17 5 5 13 16 7 5 7 11 14 28 15 0 0 0 0 17 6 0 2 1 0 0 0 0 0 0 0 0 0 3 89 230 257 172 144 144 141 139
45 36 19 11 1 1 2 4 5 15 6 10 13 8 13 42 1 0 0 0 0 0 0 0 1 4 0 0 0 0 0 0 0 0 0 0 25 88 177 280 307 319 294
19 5 8 7 2 1 1 2 6 9 4 16 29 26 71 56 59 46 35 10 14 3 0 0 0 0 0 0 0 0 0 0 0 0 0 0 0 0 8 33 75 154 228
1 4 1 1 2 1 3 20 12 2 5 17 32 51 116 124 120 112 56 22 29 1 24 53 22 19 19 0 11 36 0 0 0 0 0 0 0 0 0 0 2 14 32
0 0 1 1 2 2 5 17 18 1 1 32 33 54 85 119 134 127 101 77 32 26 1 75 93 93 91 57 41 5 2 3 0 0 0 0 0 0 0 0 0 0 2
1 1 0 2 4 2 7 5 15 17 21 34 43 48 77 68 60 85 89 83 72 50 28 37 72 88 93 50 78 23 53 39 10 0 0 0 0 0 0 0 0 0 0
1 1 1 1 1 5 2 5 4 13 31 35 32 46 47 30 48 55 41 78 70 44 35 41 39 60 58 49 29 0 2 16 9 4 0 0 0 0 0 0 0 0 0
2 3 2 1 0 0 3 0 0 1 22 22 13 15 21 39 36 10 39 44 41 45 33 17 14 15 4 11 22 27 11 8 0 2 0 0 0 0 0 0 0 0 0
3 1 0 0 0 0 0 0 0 0 0 0 0 0 5 13 11 0 1 32 25 24 17 9 0 0 0 0 0 1 2 7 15 19 0 0 0 0 0 0 0 0 0
2 1 1 0 0 0 0 0 0 0 0 0 0 0 0 0 0 2 1 6 0 1 2 0 0 0 0 0 0 0 0 13 15 25 0 0 0 1 1 1 1 1 0
3 2 6 1 1 1 1 0 0 0 0 0 1 0 0 0 3 4 10 0 0 0 0 0 0 0 0 0 4 6 7 3 1 0 1 1 0 1 3 2 2 2 2
13 5 6 6 1 0 0 1 0 1 1 1 0 0 0 0 0 6 0 1 0 0 14 3 6 10 0 0 0 0 0 0 0 1 0 0 0 1 1 2 2 1 1
0 0 0 0 0 0 0 0 1 0 0 0 0 0 0 0 0 0 0 0 0 0 0 0 0 0 0 1 1 0 0 0 0 0 0 0 0 1 1 2 2 2 1
1 1 1 1 1 1 0 1 0 0 0 1 1 0 0 0 0 0 0 0 1 0 0 0 0 0 0 0 0 0 0 0 0 0 0 0 0 0 1 1 0 0 0
1 2 2 1 1 1 0 0 0 0 1 1 1 1 0 0 0 0 0 1 0 0 1 2 1 2 2 1 0 0 0 0 0 1 0 0 0 0 0 0 0 0 0
1 1 1 1 2 1 1 1 0 0 0 0 0 0 1 0 0 0 0 0 0 0 0 0 0 0 0 0 0 0 0 0 0 1 0 0 0 0 0 0 0 0 0

GFSMA_con_sbcape_102.txt.gz
CAPE
489 207 102 106 109 63 19 1 0 56 79 155 104 58 36 33 2 12 46 84 209 309 65 14 15 16 13 10 22 17 14 7 9 12 11 22 21 18 6 4 3 3 2
475 261 128 144 158 103 23 21 30 10 1 65 74 59 29 11 5 12 24 13 4 9 23 16 15 19 21 21 23 18 15 10 9 16 15 18 15 12 14 2 2 2 1
457 258 179 152 213 156 71 32 23 33 24 48 83 45 41 14 8 16 14 0 0 0 0 21 39 35 25 27 22 17 17 18 7 6 16 15 19 8 6 0 1 0 1
532 339 236 180 192 227 215 202 116 38 25 33 16 35 44 24 5 19 7 0 0 0 0 4 34 37 44 26 15 11 12 16 11 10 17 16 12 10 5 1 0 0 0
524 514 332 247 265 350 356 303 159 30 1 2 9 16 38 23 6 31 9 0 0 0 0 7 17 21 36 44 30 17 16 14 14 9 8 16 15 15 12 5 1 0 0
477 426 281 308 331 330 380 269 150 41 1 3 55 70 20 0 0 2 0 0 0 0 0 0 9 7 16 28 37 17 25 22 18 15 18 9 6 12 10 8 5 2 0
381 317 267 319 440 452 348 236 131 81 34 20 72 1 9 0 0 0 0 0 0 0 0 0 0 3 8 20 35 29 15 25 22 12 7 3 9 16 13 5 3 3 1
510 386 346 388 435 381 262 162 67 77 47 54 37 18 4 2 0 1 0 0 0 0 0 0 0 0 0 1 6 24 34 26 24 20 27 13 18 16 7 4 2 0 0
631 544 420 460 378 313 166 98 36 39 11 15 0 1 0 2 0 0 0 0 0 0 0 0 0 0 0 0 0 6 10 9 32 37 30 22 22 19 8 0 1 0 0
602 411 358 295 354 278 170 131 79 36 5 5 2 2 0 0 0 0 0 0 0 0 0 0 0 0 0 0 0 0 0 0 0 19 41 46 47 47 51 39 32 9 12
409 299 360 250 285 238 171 121 79 9 1 3 2 3 0 0 0 0 0 0 0 0 0 0 0 0 0 0 0 0 0 0 0 0 3 102 118 124 129 133 123 108 117
386 299 265 272 219 192 160 102 35 13 20 0 5 2 0 0 0 0 0 0 0 0 0 0 0 0 0 0 0 0 0 0 0 0 0 0 65 182 199 191 203 212 218
304 339 229 208 178 126 90 43 25 4 14 9 0 3 0 0 0 0 0 0 0 0 0 0 0 0 0 0 0 0 0 0 0 0 0 0 0 13 69 166 267 307 305
154 171 224 187 142 127 107 33 9 12 8 9 0 2 0 0 0 0 0 0 0 0 0 0 0 0 0 0 0 0 0 0 0 0 0 0 0 0 0 11 37 81 138
88 101 63 48 114 116 68 19 19 16 17 13 0 1 0 0 0 0 0 1 5 4 0 0 0 0 0 0 0 0 0 0 0 0 0 0 0 0 0 0 0 0 0
5 0 1 27 63 46 30 26 20 30 14 9 3 1 0 0 0 0 0 7 15 8 0 0 0 0 0 0 0 0 0 0 0 0 0 0 0 0 0 0 0 0 0
0 0 1 6 17 7 6 8 23 16 15 8 3 1 0 0 0 0 1 14 10 1 0 0 0 0 2 0 6 1 0 0 0 0 0 0 0 0 0 0 0 0 0
0 0 0 0 0 1 1 7 4 1 1 11 1 2 3 0 0 0 1 7 0 0 1 1 0 6 14 2 14 7 17 21 32 2 0 0 0 0 0 0 0 0 0
0 0 0 1 2 1 4 6 2 0 8 2 11 2 1 0 1 1 0 0 1 0 0 0 0 0 0 0 0 0 10 12 0 0 0 0 0 0 0 0 0 0 0
1 1 0 1 0 0 1 1 1 8 6 0 0 1 0 0 0 0 0 1 0 0 0 0 7 0 0 0 0 0 1 0 0 0 0 0 0 1 1 1 1 1 1
0 1 0 0 0 0 0 0 1 2 6 3 1 1 0 0 0 0 0 0 0 0 2 0 1 1 0 0 0 0 0 0 1 1 4 3 2 1 1 1 3 3 2
0 0 0 0 0 0 1 1 1 0 0 0 1 0 0 1 1 1 2 2 0 0 1 7 0 0 0 0 0 0 0 0 0 0 2 2 1 1 1 1 2 1 1
0 0 1 0 0 0 0 1 1 0 0 0 0 0 0 1 1 0 0 0 0 0 0 0 0 0 0 0 0 0 0 0 0 0 0 0 0 0 1 3 1 1 0
1 2 1 1 1 1 0 0 0 0 0 0 0 0 0 0 0 0 0 0 0 0 0 0 0 0 0 0 0 0 0 0 0 0 0 0 0 0 0 0 0 0 0
1 1 1 1 1 1 0 0 0 0 0 0 0 0 0 0 0 0 0 0 0 0 2 3 2 1 1 0 0 0 0 0 0 0 0 0 0 0 0 0 0 0 0
1 0 1 1 2 1 2 1 0 0 0 0 0 0 0 0 0 0 0 0 0 0 0 0 0 0 0 0 0 0 0 0 0 0 0 0 0 0 0 0 0 0 0

GFSMA_con_sbcape_105.txt.gz
CAPE
1107 673 300 222 164 34 29 10 12 16 38 33 33 49 56 49 45 44 19 44 266 630 736 139 23 11 10 18 28 25 18 16 9 13 8 6 5 19 21 18 12 9 7
905 641 265 216 191 52 26 33 15 16 54 91 110 59 19 34 38 58 23 20 124 392 439 289 40 12 18 20 33 28 17 29 20 13 10 12 13 14 16 12 10 8 6
528 400 312 262 243 68 37 32 14 35 87 133 199 125 20 40 49 32 16 13 25 83 65 120 77 29 21 16 30 27 20 30 24 7 7 14 11 14 12 13 11 9 5
393 227 205 282 194 76 35 36 45 103 222 231 176 117 46 35 35 33 22 1 1 0 0 0 12 32 47 25 38 29 25 35 27 21 12 13 11 11 13 7 4 3 3
403 307 173 182 107 101 84 66 129 154 161 183 158 58 32 54 30 55 12 0 0 0 0 0 2 19 38 48 34 22 33 28 28 22 17 21 14 16 12 7 4 0 0
461 350 137 119 103 135 204 208 169 140 106 89 110 38 18 25 27 28 17 1 0 0 0 0 2 17 23 38 54 27 37 31 26 25 23 16 20 20 18 11 4 1 0
494 419 236 183 176 161 233 267 226 161 58 17 42 34 35 22 26 36 23 0 0 0 0 0 0 1 4 28 39 41 37 36 25 20 27 19 14 4 20 12 9 5 3
438 452 395 262 255 232 206 253 209 186 119 30 34 6 16 1 0 6 2 1 0 0 0 0 0 0 0 0 8 42 37 41 29 17 31 20 24 6 14 9 7 6 6
443 334 370 373 339 369 303 278 198 157 148 101 26 8 2 0 1 2 1 1 0 0 0 0 0 0 0 0 0 15 16 23 39 42 33 39 7 16 20 9 7 5 2
602 493 302 357 391 383 328 242 178 129 112 70 46 6 0 0 0 1 2 1 0 0 0 0 0 0 0 0 0 0 4 2 4 30 37 38 30 26 19 16 10 3 1
577 533 354 331 349 353 292 188 132 94 69 64 33 10 0 0 0 0 0 2 0 0 0 0 0 0 0 0 0 0 0 0 0 0 23 36 63 36 42 48 57 34 48
550 478 369 357 309 311 272 211 150 92 60 19 18 5 3 0 0 0 0 0 0 0 0 0 0 0 0 0 0 0 0 0 0 0 0 6 37 87 91 111 139 165 164
319 346 298 280 268 318 285 241 156 99 52 10 18 8 1 0 0 0 0 0 0 0 0 0 0 0 0 0 0 0 0 0 0 0 0 0 0 1 56 136 183 232 255
388 225 210 232 280 269 255 227 174 104 55 31 8 12 1 0 0 0 0 0 0 0 0 0 0 0 0 0 0 0 0 0 0 0 0 0 0 0 0 7 83 160 204
0 38 148 198 191 218 217 141 107 58 54 41 15 6 8 0 0 0 0 0 0 0 0 0 0 0 0 0 0 0 0 0 0 0 0 0 0 0 0 0 0 0 3
0 0 0 31 72 131 126 119 102 51 56 24 24 8 5 1 0 0 0 0 0 0 0 0 0 0 0 0 0 0 0 0 0 0 0 0 0 0 0 0 0 0 0
0 0 0 2 16 61 85 109 110 89 61 46 19 8 7 3 0 0 0 0 0 0 0 0 0 0 0 0 0 0 0 0 0 0 0 0 0 0 0 0 0 0 0
0 0 0 1 1 1 10 42 55 32 19 34 47 1 4 3 0 0 0 0 0 0 0 4 0 0 0 0 0 0 0 0 0 0 0 0 0 0 0 0 0 0 0
0 0 0 0 0 0 0 0 1 10 9 4 5 4 8 1 0 0 1 0 0 0 0 0 2 0 0 0 0 0 0 0 0 1 0 0 0 0 0 0 0 1 1
0 0 0 0 0 0 0 1 3 4 3 10 17 2 17 1 0 0 0 0 0 0 0 0 0 0 0 0 1 1 0 0 0 0 0 0 0 0 0 0 0 1 1
0 0 0 0 0 0 0 0 1 3 6 1 1 2 1 0 0 0 0 0 0 0 0 0 0 0 0 0 0 0 1 0 1 1 3 2 1 1 0 1 2 2 2
0 0 0 0 0 0 0 1 1 1 1 7 1 0 2 0 0 0 0 0 0 0 0 0 0 0 0 0 0 0 0 0 1 0 1 2 0 0 1 0 2 2 2
0 0 0 0 1 0 0 1 0 0 0 0 1 0 0 1 0 0 0 1 1 2 1 0 0 0 0 0 0 0 0 0 1 0 0 0 0 0 0 3 2 2 2
2 2 1 1 1 1 0 0 0 0 0 0 0 0 0 0 0 0 0 0 0 0 0 0 1 1 0 0 0 0 0 0 0 0 0 0 0 0 0 0 2 0 0
2 2 2 1 1 1 1 0 0 0 0 0 0 0 0 0 0 0 0 0 0 0 1 2 2 1 0 0 0 0 0 0 0 0 0 0 0 0 0 0 0 0 0
2 1 1 1 3 1 2 1 0 0 0 0 0 0 0 0 0 0 0 0 0 0 0 0 0 0 0 0 0 0 0 0 0 0 0 0 0 0 0 0 0 0 0

GFSMA_con_sbcape_108.txt.gz
CAPE
1397 1165 708 479 371 52 39 21 10 19 13 34 50 61 47 49 17 22 27 46 97 547 889 481 190 27 8 6 28 24 17 34 23 8 14 15 22 23 10 14 5 12 12
1363 1064 634 595 160 93 30 23 23 28 22 33 65 83 82 112 93 42 31 61 31 138 527 612 258 61 20 12 29 34 24 25 22 12 8 20 22 20 3 7 14 5 8
1276 1030 689 596 449 40 16 8 1 0 8 30 68 82 106 204 184 54 43 57 50 15 234 236 315 168 30 12 36 42 38 41 30 28 9 15 17 14 8 14 12 7 5
1012 769 642 570 395 61 15 13 1 7 18 90 106 74 109 126 113 81 88 72 29 24 51 109 119 36 36 23 38 28 34 27 31 30 19 23 17 22 18 13 13 10 4
872 647 634 477 225 83 47 24 10 28 51 98 191 175 186 148 131 106 92 50 28 0 4 17 14 1 17 44 42 42 34 38 32 28 29 11 19 19 17 11 12 7 5
788 768 451 333 163 110 70 40 37 71 101 103 195 162 187 117 92 108 70 47 18 20 0 0 0 0 9 35 58 62 40 15 35 32 35 24 16 21 22 9 6 5 2
763 700 405 218 122 125 99 63 77 75 39 33 61 54 29 38 69 44 81 42 8 0 0 0 0 0 1 29 44 60 41 36 36 22 27 34 27 36 28 11 5 6 3
696 633 470 296 149 136 153 131 110 104 65 21 33 12 5 2 9 48 45 20 15 0 0 0 0 0 0 4 11 51 56 58 49 42 39 41 30 28 5 21 15 13 12
729 655 534 383 247 133 218 191 163 133 122 40 51 8 6 3 1 1 31 28 12 0 0 0 0 0 0 0 1 25 27 31 63 48 50 52 38 27 8 9 19 16 11
740 707 626 404 279 261 245 193 181 154 82 106 42 41 0 0 0 0 1 1 1 0 0 0 0 0 0 0 0 1 8 9 21 48 45 44 25 10 18 21 27 17 12
744 699 595 524 422 354 297 229 184 163 87 105 83 43 17 0 0 1 1 1 1 1 0 0 0 0 0 0 0 0 0 3 0 4 30 40 44 38 28 32 31 20 17
845 686 586 500 464 401 367 239 175 141 125 95 70 10 18 14 0 0 0 0 0 1 0 0 0 0 0 0 0 0 0 0 0 0 0 16 28 41 37 39 31 70 66
815 724 493 494 433 441 356 256 183 186 129 138 65 54 11 9 3 0 0 0 0 1 1 0 0 0 0 0 0 0 0 0 0 0 0 0 3 16 26 24 36 101 153
748 517 402 328 399 370 303 226 225 215 188 165 110 42 31 11 3 0 0 0 1 0 0 0 0 0 0 0 0 0 0 0 0 0 0 0 0 0 0 1 1 56 113
245 257 288 316 305 238 205 188 249 216 204 182 107 40 33 25 6 0 0 0 0 0 0 0 0 0 0 0 0 0 0 0 0 0 0 0 0 0 0 0 0 0 12
73 178 99 128 99 102 98 129 201 199 159 139 115 54 39 30 5 0 0 0 0 0 0 0 0 0 0 0 0 0 0 0 0 0 0 0 0 0 0 0 0 0 0
6 21 14 0 2 26 29 47 139 149 97 104 39 45 44 19 7 0 0 0 0 0 0 0 0 0 0 0 0 0 0 0 0 0 0 0 0 0 0 0 0 0 0
0 0 0 0 0 0 0 29 88 109 78 72 63 56 33 16 6 0 0 0 0 0 0 0 0 0 0 0 0 0 0 0 0 0 0 0 0 0 0 0 0 0 0
0 1 0 0 0 0 0 0 0 0 3 32 38 52 12 14 18 1 0 0 0 0 0 0 0 0 0 0 0 0 0 0 0 0 0 0 0 0 0 0 0 0 0
0 0 0 0 0 0 0 0 0 0 2 4 3 22 29 24 13 0 0 0 0 0 0 0 0 0 0 0 9 7 1 1 1 0 0 0 1 1 0 0 0 1 1
0 0 0 0 0 0 0 0 0 0 1 1 1 9 2 7 5 2 0 0 0 0 0 0 0 0 0 0 5 0 0 0 2 2 2 2 1 1 2 2 3 2 3
1 1 0 0 0 0 0 0 0 1 0 1 1 1 1 1 1 1 0 0 0 0 0 0 0 0 0 0 0 0 0 0 1 0 1 1 0 0 1 2 1 2 2
1 2 2 2 1 1 0 0 1 0 0 1 1 1 0 1 1 0 1 1 2 1 0 0 1 0 0 0 0 0 0 0 0 0 0 0 0 0 0 2 2 3 2
2 3 2 3 3 2 1 0 0 0 0 1 1 1 0 0 0 0 0 0 0 0 0 1 0 1 1 0 0 0 0 0 0 0 0 0 0 0 0 0 4 3 2
2 2 3 3 3 2 3 0 0 0 0 1 1 1 1 0 0 0 0 0 0 0 1 1 2 1 1 0 0 0 1 0 0 0 0 0 0 0 0 1 0 4 4
1 0 1 2 5 3 7 6 0 0 0 0 0 0 1 0 0 0 0 0 0 0 0 0 0 0 0 0 0 0 0 0 0 0 0 0 0 0 1 0 0 0 0

GFSMA_con_sbcape_111.txt.gz
CAPE
1593 1732 1965 2104 2133 1915 1726 1724 1519 1488 1444 1213 1103 1133 1090 1143 1040 1031 1052 82 53 539 920 794 412 176 38 8 22 27 24 14 16 20 26 33 29 22 21 20 10 5 7
1597 1669 1547 1846 1896 1666 1471 1497 1346 1282 1325 1240 1143 1102 1060 1079 985 975 1045 700 50 63 428 698 560 228 56 15 30 27 27 42 28 17 23 28 36 25 20 26 15 18 15
1988 1599 1536 1362 1566 1297 1206 1112 1150 1152 1273 1074 1185 1064 997 993 938 817 688 300 263 34 24 197 542 434 141 17 20 32 38 49 38 22 18 29 28 25 25 24 20 10 13
1944 1787 1313 1302 1426 899 974 966 975 1009 1075 1023 1007 911 1001 908 857 783 464 340 205 80 29 6 130 205 160 30 22 27 24 32 32 30 21 23 28 20 21 16 21 12 7
1562 1572 1379 1063 1009 797 635 819 836 996 863 720 720 763 789 679 654 719 470 340 190 72 70 80 35 96 43 24 33 35 28 31 35 40 24 22 22 27 25 14 12 13 8
1157 1374 1353 963 810 581 486 378 567 532 771 866 504 673 693 457 848 656 396 284 223 78 100 58 66 107 3 9 30 49 31 42 42 46 31 24 25 34 30 15 10 11 9
1078 1196 1394 765 720 665 466 282 342 367 261 244 216 244 313 462 406 408 414 272 169 74 49 2 87 118 21 2 27 61 52 46 42 48 46 32 35 34 15 28 16 16 10
1097 981 1056 763 629 684 426 306 287 242 285 192 253 229 296 341 496 536 466 245 206 91 31 4 6 45 60 10 19 48 92 62 46 57 63 53 37 32 10 31 19 18 13
1130 925 903 754 586 580 517 447 355 351 295 108 272 282 185 174 109 189 142 98 78 61 44 5 2 8 39 18 10 15 24 28 61 82 71 54 41 30 18 26 24 18 14
1113 941 775 733 507 496 633 521 421 417 451 182 98 139 416 135 168 25 22 30 89 22 9 2 0 0 1 33 2 2 1 4 21 53 66 66 46 33 16 24 24 29 19
1049 865 795 650 557 658 700 493 457 430 548 376 185 148 283 192 8 13 39 8 7 26 20 2 1 1 0 0 0 0 0 0 1 24 48 44 46 35 26 28 27 24 24
978 890 729 569 574 530 653 430 479 478 343 317 273 313 174 154 6 7 15 8 30 4 3 1 1 2 0 2 0 0 0 0 0 0 14 23 39 34 33 33 35 27 24
924 798 808 596 561 523 580 608 469 432 382 305 333 322 233 271 71 6 30 58 9 4 3 2 1 1 0 25 14 0 0 0 0 0 0 4 15 20 28 24 28 35 38
1077 869 701 667 624 549 509 566 500 412 348 300 360 288 256 174 93 9 36 61 7 1 7 0 4 1 0 3 4 0 0 0 0 0 0 0 0 1 9 13 9 14 22
1108 876 847 503 513 478 377 514 582 339 252 292 335 344 309 274 128 154 80 53 65 16 2 1 1 2 1 1 0 10 0 0 0 0 0 0 0 0 0 0 1 3 5
941 752 690 531 437 342 421 337 403 310 239 260 274 278 255 288 199 127 138 34 83 10 2 14 0 0 0 0 0 20 1 0 0 0 0 0 0 0 0 0 0 0 0
534 537 544 859 468 244 278 244 257 162 184 240 183 347 285 248 153 127 118 185 2 5 13 27 0 0 0 0 0 2 20 2 0 0 0 0 0 0 0 0 0 0 0
403 449 352 205 114 102 104 93 42 70 140 268 333 279 157 72 82 108 51 7 22 4 24 2 0 0 0 0 0 5 13 1 0 0 0 0 0 0 0 0 0 0 0
53 58 84 95 36 3 1 0 0 1 22 30 63 111 194 174 105 49 31 2 0 0 1 1 0 0 0 0 0 2 30 19 0 0 1 0 0 0 0 0 0 0 0
1 2 2 0 1 0 0 0 0 1 1 2 6 12 7 14 64 35 43 15 0 1 0 0 0 0 0 0 3 3 2 3 1 0 0 0 0 0 0 0 0 0 0
2 2 4 2 2 0 0 1 0 0 0 0 2 5 9 25 3 24 45 19 0 0 1 2 1 0 0 0 1 5 1 2 5 5 5 6 3 5 5 1 3 2 3
3 1 2 3 3 1 1 0 0 2 2 2 2 2 5 1 0 0 0 0 8 0 0 1 1 1 0 0 0 1 0 0 1 4 4 5 3 5 4 2 1 1 2
2 1 2 2 4 3 2 0 0 1 1 2 3 4 2 1 0 1 1 1 1 0 0 0 0 0 0 0 0 0 0 0 0 1 0 3 1 0 1 3 2 1 1
0 2 3 3 3 4 4 1 0 1 2 2 4 5 4 4 2 0 0 0 0 0 0 1 0 0 0 0 0 0 0 0 0 0 0 0 0 0 0 3 6 5 2
2 3 3 2 2 3 8 4 1 2 2 2 3 5 4 2 0 0 0 0 0 0 1 3 2 1 0 0 1 0 0 0 0 0 0 0 1 0 0 0 1 6 3
3 2 2 3 5 3 3 3 1 3 2 2 2 3 6 3 0 0 2 0 0 0 0 0 0 0 0 0 0 0 0 0 0 0 0 0 0 0 1 3 0 0 5

GFSMA_con_sbcape_114.txt.gz
CAPE
2543 2568 2481 2430 2495 2308 2415 2149 1904 1815 1667 1496 1477 1455 1404 1308 1083 1231 1227 215 129 452 1117 837 651 358 149 39 69 25 26 18 17 15 16 23 27 29 23 28 8 7 18
2482 2195 2465 2528 2470 2296 2431 2352 2078 1988 1825 1679 1483 1320 1297 1298 1165 1089 1056 988 48 50 838 1019 768 512 221 42 66 26 23 35 36 18 22 19 28 35 32 24 21 17 15
2542 2189 2294 2433 2311 2689 2312 2429 2037 1820 1620 1714 1563 1311 1443 1263 1095 952 1075 961 548 41 307 464 646 357 366 52 25 34 27 41 35 33 27 22 32 34 31 23 20 20 13
2537 2299 2187 2299 2537 2754 2474 2267 2019 1897 1804 1644 1591 1328 1241 1173 1098 1031 949 858 686 694 98 57 42 148 257 235 12 19 21 48 45 40 33 32 21 27 25 26 25 19 14
2988 2712 2370 2096 2353 2114 2322 2163 2075 2011 1745 1479 1401 1327 1409 1127 1101 917 875 850 730 501 409 102 37 34 115 215 69 20 35 39 37 32 27 25 19 29 21 27 25 8 8
2801 2965 2313 2348 2115 1569 1747 2204 2127 1866 1893 1596 1393 1315 1316 1255 1166 1054 990 866 922 739 333 327 192 95 38 95 103 62 38 41 39 29 34 30 25 26 26 30 28 23 13
2845 2713 2137 2142 1648 1507 1588 1776 1770 1897 2024 1818 1508 1313 1321 1031 1018 937 864 846 949 662 366 232 172 149 53 37 64 148 40 42 46 41 46 43 39 35 26 26 27 19 17
2498 2679 2377 2082 1607 1458 1271 1437 1345 1124 1176 1342 936 852 844 899 905 921 892 758 795 677 208 143 89 106 98 53 59 35 120 53 56 64 68 38 39 37 33 28 28 18 12
2394 2727 2262 1877 1488 1464 1060 1073 1318 1081 813 796 1455 919 878 572 522 762 860 760 785 588 130 85 33 68 96 79 53 6 11 22 39 85 72 51 29 24 29 28 36 31 16
2464 2280 2097 1896 1498 1377 1110 970 1118 1342 1086 601 678 1258 903 618 481 425 448 504 735 533 124 50 46 21 75 73 67 5 0 0 8 40 67 89 49 30 28 31 36 36 27
1977 1910 1872 1934 1485 1509 1134 973 1010 1198 1113 937 569 655 1111 969 639 456 553 497 211 469 510 94 22 28 13 9 10 56 0 0 0 8 53 76 62 39 29 36 39 37 32
1652 1518 1464 1587 1521 1371 1116 956 981 1176 1101 957 636 1268 959 830 793 484 407 305 347 270 189 104 33 11 3 1 1 0 0 0 0 0 6 28 46 39 32 32 37 39 30
1470 1405 1378 1346 1308 1261 1183 835 761 990 1015 778 1328 1202 1020 654 449 512 482 527 426 336 207 17 55 10 3 2 0 0 0 0 0 0 0 0 18 24 30 21 31 36 35
1627 1390 1491 1355 1294 1254 1180 1118 869 748 830 967 1374 1448 1156 898 798 723 576 601 128 86 162 75 14 11 4 4 4 0 0 0 0 0 0 0 4 10 8 7 14 19 27
1584 1552 1408 1218 1098 1160 1065 979 729 710 747 867 1039 1521 1311 1205 1023 922 614 448 408 230 9 14 70 13 7 5 0 0 1 0 0 0 0 0 0 0 0 1 2 5 10
2159 1931 1577 1408 971 920 936 857 778 658 671 755 835 784 818 864 793 841 629 462 244 410 134 13 84 91 12 4 1 0 18 8 0 0 0 0 0 0 0 0 0 0 0
1864 1763 1873 1310 881 809 731 712 751 542 476 655 551 532 585 597 416 314 321 382 469 203 68 10 18 52 0 4 2 0 1 7 35 0 0 0 0 0 0 0 0 0 0
1650 1383 1183 752 518 517 553 578 395 298 401 474 406 278 359 379 441 568 608 383 397 230 103 24 39 0 0 7 2 0 1 4 19 0 0 0 0 0 0 0 0 0 0
496 430 431 470 433 238 296 216 212 251 274 214 197 301 438 411 433 488 282 227 162 63 119 35 9 24 17 14 4 2 2 1 2 0 0 0 0 0 0 0 0 0 0
9 6 4 1 0 0 0 0 0 0 0 0 4 72 108 85 83 120 112 46 20 22 12 3 4 0 1 1 5 2 3 3 0 0 0 0 0 0 0 0 0 0 0
10 9 1 1 2 2 2 1 0 1 1 1 12 13 12 1 0 0 1 24 130 38 34 6 1 0 1 0 1 1 0 1 1 2 3 4 4 3 2 0 0 0 0
3 3 2 6 8 3 5 0 0 4 2 1 1 1 1 0 0 0 0 1 0 5 58 35 4 2 2 1 0 0 0 0 0 0 0 2 2 4 5 3 0 0 0
5 5 6 5 5 4 2 0 0 2 2 3 3 3 2 1 1 4 1 0 0 0 0 0 2 0 0 0 0 0 0 0 0 0 0 0 1 1 3 2 1 1 2
4 7 7 3 2 3 1 1 0 3 4 3 4 4 5 6 5 3 6 2 2 2 1 1 0 0 1 0 0 0 0 0 0 0 0 0 0 0 1 2 4 3 3
1 6 3 2 3 6 8 2 0 2 3 5 4 6 5 7 3 0 3 4 3 2 1 2 2 1 1 1 1 0 0 0 0 0 0 0 0 1 0 0 2 5 3
7 4 2 2 5 5 9 8 3 1 1 2 2 3 6 7 4 3 3 4 2 3 2 0 0 0 0 0 0 0 0 0 0 0 0 0 0 0 1 4 0 0 1

GFSMA_con_sbcape_117.txt.gz
CAPE
3409 3085 2640 2839 2659 2444 2615 2446 2015 2019 1847 1590 1606 1582 1535 1563 1529 1012 1666 471 682 1007 1343 1109 944 750 557 300 230 177 144 41 3 2 19 22 23 32 7 11 17 4 5
3085 2810 2952 2377 2743 2415 2259 2590 2256 1946 1987 1747 1785 1580 1681 1287 1441 1431 1463 938 280 381 903 1271 1144 901 608 272 230 145 106 74 31 17 23 28 29 25 7 4 4 4 15
3633 3192 2879 2748 2107 2431 2847 2951 2731 2314 2031 2123 1889 1767 1535 1446 1597 1444 1139 1162 544 106 188 679 797 673 631 212 115 119 89 40 37 33 31 29 32 27 20 5 4 2 4
3241 3215 2715 3007 2712 2712 2870 2756 2676 2499 1973 1734 1926 1930 1703 1628 1581 1472 1008 1235 890 816 99 218 318 352 64 355 167 91 28 41 52 45 45 32 32 34 26 15 3 4 19
3326 3332 2688 2674 3336 2886 2981 2653 2417 2492 2456 2143 1978 1827 1844 1652 1582 1056 1036 1348 1015 681 601 136 43 9 123 304 295 150 31 14 31 43 49 42 45 34 23 22 4 10 31
3365 3232 2724 2889 2795 2962 3075 3059 2725 2457 2255 2153 1584 1680 2016 1674 1519 1264 1172 1019 748 1072 650 631 228 68 0 51 175 157 35 23 38 39 37 47 47 35 28 27 13 21 11
3639 3445 3256 3283 2958 2627 2542 2862 2854 2725 2311 2398 2089 1990 1845 1783 1690 1395 1190 771 767 851 960 852 619 258 5 0 20 211 121 38 44 47 56 49 46 29 27 21 27 24 15
3579 3685 3612 3331 3288 2558 1960 2202 2293 2681 2851 2767 2046 1705 1104 1202 1323 1376 1033 890 1004 821 854 997 721 409 343 121 53 103 182 189 154 84 57 50 48 35 25 20 30 28 25
3607 3733 3706 3466 3281 2871 2504 1893 1808 1852 1920 2488 2513 1307 1008 706 913 1236 1357 1106 1099 1018 900 832 595 452 223 121 58 18 11 27 61 82 64 46 47 37 30 27 27 25 23
3482 3752 3819 3675 3328 2804 2337 1849 1648 1609 1381 1299 1752 1935 1703 920 725 678 1025 1175 1120 1123 1059 942 537 212 123 79 20 23 2 0 2 34 68 63 42 36 33 30 32 26 24
3082 3572 3621 3550 3257 2749 2431 2107 1624 1518 1426 1252 1133 1726 2154 1926 1668 1030 979 625 655 652 737 960 696 267 103 22 40 28 2 0 0 3 28 56 43 40 23 21 21 29 31
2679 3433 3226 3151 2824 2431 2396 2347 1838 1414 1469 1142 1074 1267 1356 1561 1463 1051 885 970 733 697 484 675 638 335 129 23 41 17 0 0 0 0 0 27 43 29 22 19 26 35 38
2514 2812 2765 2356 2607 2382 2148 2187 1530 1348 1368 1154 1020 999 1748 1535 1559 1109 1012 1062 776 546 726 667 640 371 112 130 38 0 0 0 0 0 0 0 25 17 16 11 26 29 36
2726 2829 2626 2030 1948 2371 1964 1740 1447 1338 1232 1205 1049 1199 1613 1895 1683 1120 695 833 848 786 715 537 275 251 51 7 6 0 0 0 0 0 0 0 1 1 2 3 15 16 24
2724 2676 2477 1711 1595 1608 1748 1448 1274 1126 1258 1320 1282 1191 1752 1730 1786 1523 1232 678 979 886 682 337 306 314 138 2 3 3 0 0 0 0 0 0 0 0 0 0 2 8 9
2538 2323 2258 1650 1454 1407 1349 1305 1209 1061 974 1070 1134 1181 1195 1777 1584 1529 1246 1267 1129 923 741 702 188 249 286 34 4 5 9 0 0 0 0 0 0 0 0 0 0 0 2
1960 2094 2100 1612 1412 1323 1204 1181 1033 903 898 995 973 1016 1188 1574 1310 721 593 923 941 717 371 540 554 377 548 231 17 6 16 1 0 0 0 0 0 0 0 0 0 0 0
1818 1999 1910 1811 1629 1185 1028 969 931 843 834 587 865 796 666 793 931 726 460 292 319 361 378 262 446 376 294 458 180 8 2 7 0 0 0 0 0 0 0 0 0 0 0
884 250 665 71 360 495 662 645 657 562 647 601 648 383 630 551 320 266 466 569 607 288 431 308 134 75 67 201 64 8 11 4 5 0 0 0 0 0 0 0 0 0 0
7 8 2 3 2 1 0 0 165 161 128 135 176 142 191 101 93 0 21 81 160 308 90 69 103 24 34 24 61 1 3 2 2 0 0 0 0 0 0 0 0 0 0
8 12 15 9 3 3 3 1 1 1 1 0 0 0 0 0 0 0 0 1 1 3 7 34 15 8 10 1 1 1 1 0 1 0 0 0 0 0 0 0 0 0 0
17 5 11 13 21 19 13 4 0 4 1 1 1 0 0 0 0 0 0 0 0 5 5 6 11 14 0 6 0 0 1 0 0 0 0 0 0 0 0 0 0 0 1
6 9 7 6 9 6 13 8 4 9 10 5 3 2 0 1 1 1 0 0 0 0 0 3 3 2 1 0 0 0 0 0 0 0 0 0 0 0 0 0 0 0 0
1 3 11 7 3 8 6 2 2 0 0 1 4 3 4 3 2 2 3 2 3 5 5 5 5 3 1 2 1 3 0 0 0 0 0 0 0 0 0 0 2 2 1
3 1 2 2 1 5 8 4 1 2 2 2 3 3 4 4 4 1 2 4 1 2 2 1 0 1 2 2 1 0 0 0 1 1 0 0 0 0 0 0 0 5 3
4 3 5 7 8 3 13 9 2 1 1 1 4 6 7 8 5 2 3 3 3 5 4 1 1 1 2 2 1 1 1 0 1 0 0 0 0 0 0 1 0 0 0

GFSMA_con_sbcape_120.txt.gz
CAPE
2538 2595 2178 2489 2281 2366 2167 2172 1850 1523 1476 1482 1495 1401 1224 1286 1326 672 594 789 1054 1551 1778 1343 1062 705 547 477 595 528 354 102 16 0 18 10 21 28 3 6 4 23 22
2551 2503 2408 2566 2399 2291 2340 2159 2150 1789 1623 1619 1597 1437 1251 1258 1362 1147 873 355 791 1006 1306 1645 1441 1000 772 465 461 365 331 206 125 20 15 11 13 13 17 2 11 10 19
2814 2787 2588 2368 2424 2268 2391 2164 2290 2037 1847 1664 1627 1485 1476 1580 1408 1206 1244 828 284 493 660 1121 1357 1280 787 599 219 148 186 211 149 73 28 11 22 21 20 2 6 2 15
3090 2618 2463 2715 2691 2437 2329 2213 2173 2249 1828 1792 1708 1582 1537 1514 1431 1254 1120 1162 691 371 116 399 729 792 454 707 232 83 75 105 162 100 42 26 27 29 21 9 4 3 4
2576 2938 2586 2344 2582 2837 2442 2447 2296 2341 2124 1836 1694 1691 1645 1528 1379 1233 1084 870 872 750 272 123 300 379 23 289 390 337 164 82 44 118 49 37 37 36 13 22 7 4 5
2313 2307 2799 2420 2206 2550 2741 2451 2395 2298 2263 1941 1772 1691 1707 1523 1395 1185 1011 954 925 562 354 124 21 36 63 211 564 455 393 198 77 34 57 44 47 40 26 13 13 4 9
2557 2345 2497 2601 2362 2032 2445 2638 2434 2239 2162 2032 1931 1621 1621 1486 1393 1208 1052 882 764 624 502 103 28 67 0 43 374 559 431 299 111 36 73 56 44 39 33 7 8 5 23
2564 2673 2523 2431 2461 2057 2100 2763 2597 2254 2158 2062 1745 1477 1574 1543 1396 1196 1049 1005 765 607 545 425 308 93 36 6 4 164 240 324 228 146 89 57 43 39 37 17 11 23 28
2293 2869 2689 2380 2466 2370 2103 2263 2360 2313 1986 2025 1778 1368 1055 826 874 1033 1163 974 757 688 504 451 362 230 177 148 29 0 0 25 144 169 117 56 49 27 35 33 26 29 27
2432 2612 2824 2792 2609 2634 2343 2174 2001 1886 2007 2045 1880 1563 1102 904 442 1022 988 894 696 665 591 551 347 256 211 98 51 1 0 0 3 62 117 78 52 28 26 27 20 26 33
2081 2292 2251 2538 2785 2436 2451 1939 1696 1655 1820 1676 1899 1566 1514 1312 1148 928 662 859 843 640 654 597 478 252 157 98 49 0 0 0 0 0 32 74 58 50 30 24 14 19 24
993 1928 1943 2237 2605 2443 1682 791 1517 1548 1577 1516 1426 1368 1384 1423 1211 1017 871 514 452 545 442 545 543 365 124 74 1 1 1 0 0 0 0 10 36 46 33 29 24 16 24
203 1185 1677 2019 2464 2572 2006 1956 1649 1480 1468 1360 1379 1168 1119 1155 1254 1092 906 513 561 469 285 358 457 425 177 43 9 0 0 1 0 0 0 0 5 22 19 20 21 24 23
6 676 1228 1412 1998 2174 2157 1957 1891 1632 1388 1237 1258 1135 1010 994 975 843 757 592 416 366 261 277 369 344 247 160 60 0 0 0 1 1 0 0 0 0 0 2 5 6 16
1 232 1130 1238 1513 2040 2077 1947 1708 1602 1315 1267 1121 1163 995 958 964 987 885 529 303 281 209 244 246 247 154 122 82 0 0 0 0 0 0 0 0 0 0 0 0 0 2
3 442 935 1131 1006 1520 1691 1560 1508 1278 1194 958 1084 1146 1105 1063 1090 1053 891 631 424 305 245 352 178 217 160 97 57 0 0 0 1 1 0 0 0 0 0 0 0 0 0
6 581 640 523 3 997 1290 1344 1327 1170 1102 996 972 1051 1044 1068 1259 1052 826 647 536 388 260 236 175 99 43 37 1 0 0 0 0 1 1 1 0 0 0 0 0 0 0
137 930 1064 798 205 988 1184 1318 1172 1032 1062 902 909 881 908 956 1052 1022 564 383 246 213 228 207 162 158 169 57 0 0 0 2 0 0 1 0 0 0 0 0 0 0 0
7 5 2 2 2 2 918 1118 1096 1002 943 795 889 805 796 868 916 588 433 341 201 231 215 135 102 99 63 69 53 14 1 0 0 0 0 0 0 0 0 0 0 0 0
9 12 15 12 14 8 5 2 859 805 731 635 521 243 14 31 47 0 0 0 0 0 7 47 46 14 42 30 13 12 16 0 0 2 0 0 0 0 0 0 0 0 0
1 4 7 10 9 15 17 7 4 1 1 4 5 5 4 0 0 0 1 0 0 0 1 1 0 0 6 11 9 9 17 1 0 0 0 0 0 0 0 0 0 0 0
0 9 19 9 3 16 12 17 4 3 5 7 3 5 5 2 2 0 0 0 0 0 2 4 2 2 1 14 16 14 16 7 0 0 0 0 0 0 0 0 0 0 0
6 8 12 14 24 22 11 12 24 21 17 11 5 4 5 6 5 2 0 0 0 0 0 2 3 3 2 3 4 1 2 1 0 0 0 0 0 0 0 0 1 0 0
1 5 1 1 1 6 9 2 2 0 2 3 0 1 2 1 2 1 2 2 2 2 1 2 2 2 2 3 4 5 3 1 0 0 0 0 0 0 0 0 0 0 0
1 1 1 0 1 4 15 9 1 0 0 0 2 2 2 2 3 2 1 1 0 1 2 1 1 1 1 1 3 3 0 1 1 0 0 0 0 0 0 0 0 2 0
6 3 2 1 6 0 16 15 3 0 0 0 0 0 7 5 7 4 1 1 1 1 0 0 0 0 0 0 1 1 3 1 1 0 0 0 0 0 0 0 0 0 0

GFSMA_con_sbcape_123.txt.gz
CAPE
1817 1739 1664 1648 1726 1486 1636 1376 1194 1096 1121 1030 1023 869 857 610 729 691 638 977 1174 1421 1876 1412 1303 1220 880 677 513 451 480 129 37 7 16 13 14 30 27 29 16 19 21
1730 1815 1276 1854 1793 1685 1639 1646 1404 1148 1035 1021 1126 1016 674 770 711 604 423 484 1085 1365 1672 1775 1606 1251 866 548 573 620 490 245 135 64 3 0 14 30 5 13 11 25 31
1735 1962 1671 1767 1793 1713 1696 1584 1514 1262 1090 1005 1205 1056 1007 855 801 845 582 329 506 896 1277 1498 1481 1447 1285 970 644 628 441 281 203 113 15 6 9 19 12 5 8 6 28
1963 1708 1935 1655 1808 1669 1722 1608 1629 1480 1309 1281 1215 1264 1073 1045 1062 782 749 538 290 442 473 1035 1167 1120 1098 1011 587 399 314 334 267 164 30 2 13 29 25 13 7 7 7
1919 1940 1956 1824 1586 1700 1699 1683 1644 1626 1484 1270 1290 1099 1045 1065 1018 925 723 766 332 275 231 231 662 812 766 784 842 515 356 258 174 284 74 7 23 35 25 24 10 5 6
1738 1762 1934 1610 1779 1758 1509 1581 1473 1563 1570 1361 1434 1456 1104 1010 960 840 863 585 642 422 236 143 92 180 244 348 676 737 481 398 276 188 218 26 28 34 31 28 24 23 9
1452 1570 1723 1773 1522 1729 1745 1447 1531 1570 1531 1333 1191 988 1024 1048 1027 822 620 627 721 509 317 166 57 65 11 42 211 594 573 752 534 198 175 109 27 29 36 36 26 28 34
1418 1600 1297 1480 1904 1687 1302 1519 1627 1644 1626 1388 1257 1104 1343 1265 997 849 597 662 636 437 301 124 51 22 0 0 4 419 674 799 703 277 216 117 21 29 36 41 35 34 29
497 1425 1392 1329 1644 1816 1363 1495 1755 1649 1558 1358 1106 907 873 972 821 683 825 674 519 465 439 173 44 17 0 0 0 3 56 63 281 473 229 118 24 29 33 36 37 43 38
0 62 1359 1542 1364 1639 1820 1200 1748 1731 1406 1379 1138 980 384 262 467 674 591 914 362 314 237 245 145 65 13 0 0 0 0 0 0 107 203 149 83 20 20 30 36 38 39
0 0 117 1218 1668 1468 1897 1434 1296 1619 1277 1325 1390 1257 828 397 408 346 608 601 300 273 235 223 242 170 82 42 24 5 0 0 0 0 47 125 111 22 15 7 21 33 33
0 0 0 224 1153 1632 1618 1729 1520 1300 1252 1003 1252 1302 1305 1013 672 493 300 410 643 282 361 234 187 161 119 81 46 23 1 0 0 0 0 37 62 63 2 7 14 29 35
0 0 0 0 645 1085 1559 1723 1370 887 472 737 938 1371 1269 1207 1003 714 405 230 220 153 219 276 272 234 158 54 42 2 0 1 1 1 0 0 2 22 10 0 8 28 41
2 2 0 0 93 773 1130 1395 1338 746 7 62 683 949 996 1141 908 887 761 402 145 114 53 209 118 241 179 91 12 0 0 1 1 1 1 0 0 0 0 0 0 0 10
3 1 4 0 0 302 785 946 1166 980 571 227 281 580 699 739 773 751 570 343 313 168 150 26 152 225 190 92 28 0 0 0 1 1 1 1 0 0 0 0 0 0 0
2 1 2 3 0 25 618 725 786 774 783 784 675 660 688 632 585 692 534 413 148 154 59 68 61 86 167 89 23 0 0 0 1 1 1 1 1 0 0 0 0 0 0
0 0 2 4 0 22 583 499 630 645 667 940 752 694 578 657 555 700 701 453 134 127 146 68 73 7 38 47 0 0 0 0 0 1 1 1 1 1 0 1 0 0 0
6 3 4 1 1 1 3 24 9 28 0 576 778 793 634 636 661 697 497 485 379 126 86 145 20 10 15 7 0 0 0 0 0 0 1 1 1 1 1 1 1 0 0
8 6 4 4 4 4 3 1 0 0 583 980 998 817 782 758 703 672 197 104 59 44 48 83 93 27 26 18 0 0 0 0 0 0 0 0 1 1 0 0 1 1 0
5 5 5 5 3 3 3 0 1 334 474 384 208 136 1 0 239 427 353 75 0 5 17 68 22 24 28 2 0 8 2 0 0 0 0 0 0 1 0 0 0 1 1
5 2 2 3 2 1 7 5 7 10 3 5 13 5 5 3 1 1 2 1 0 0 0 0 0 0 0 0 0 0 0 0 0 0 3 0 0 0 0 0 0 0 0
2 0 2 1 1 1 3 2 3 4 11 9 10 4 3 5 6 4 1 4 2 2 1 0 0 0 1 1 1 1 2 2 11 0 4 0 1 0 0 0 0 0 1
2 1 1 0 1 1 4 1 0 0 1 5 9 5 3 6 6 13 9 3 4 2 0 1 1 1 2 3 3 2 2 2 0 0 0 0 0 1 0 0 0 0 0
0 1 0 0 0 5 8 6 2 0 0 0 1 1 4 1 8 5 3 3 1 1 0 0 1 1 1 2 2 2 2 2 0 0 0 0 0 0 0 0 2 0 0
2 1 1 1 0 2 17 11 1 0 0 0 0 3 1 1 4 2 1 1 0 0 2 2 3 3 2 4 2 1 1 1 0 0 0 0 0 0 0 0 0 4 1
1 1 0 0 5 0 20 19 2 0 0 0 0 1 12 9 12 5 0 0 0 0 0 0 0 0 0 0 3 2 4 2 0 0 0 0 0 0 0 0 0 0 0

GFSMA_con_sbcape_129.txt.gz
CAPE
1455 1334 1354 1320 1477 1504 1290 1037 951 763 441 368 294 277 244 206 215 189 99 263 599 1246 1829 1804 1821 1561 1375 1245 1061 974 841 395 222 96 82 65 21 15 22 22 33 56 52
1216 1451 1499 1571 1378 1535 1181 998 831 570 470 487 395 363 346 200 84 125 81 156 271 796 1342 2134 1928 1744 1527 1280 1058 954 884 632 487 291 139 52 15 0 8 16 30 37 49
419 1120 1337 1614 1419 1568 1317 1032 857 713 435 460 418 374 455 278 123 151 162 192 258 396 775 1178 1579 1797 1785 1700 1278 1024 788 583 476 402 163 40 9 0 1 6 14 22 19
0 0 927 1105 1296 1226 1231 1202 934 698 586 504 513 349 440 360 222 237 214 229 311 450 343 828 1231 1426 1472 1632 1474 999 883 695 546 458 196 61 12 1 1 4 18 31 30
0 0 100 260 160 634 1064 1178 1158 944 773 579 475 328 303 397 260 318 236 206 224 321 417 280 829 995 1101 1240 1557 1154 728 608 531 500 331 122 41 6 13 10 16 28 38
1 0 1 2 3 81 678 982 1121 1057 965 742 580 481 302 346 209 298 357 252 155 177 219 295 373 590 732 924 1212 1477 974 1143 917 591 508 342 123 47 32 9 11 26 39
0 0 2 1 0 62 179 435 949 1152 964 690 504 319 181 173 176 304 391 356 224 167 176 236 351 580 347 503 809 1334 1325 1138 1028 902 663 438 225 66 28 13 12 23 29
0 0 0 0 0 8 86 141 510 598 850 754 651 692 647 541 236 292 351 398 413 265 163 165 194 312 463 452 565 751 1263 1298 1201 1126 588 425 283 105 59 22 29 21 39
0 0 0 0 0 1 17 4 131 540 444 778 685 368 348 474 579 283 444 441 377 370 313 185 135 129 174 208 296 292 305 520 650 882 589 432 263 169 41 29 33 30 33
0 0 0 0 0 1 1 20 64 44 147 388 535 467 298 188 399 275 175 573 496 301 352 247 192 129 110 137 65 130 83 75 102 399 543 562 241 163 52 16 59 41 39
0 0 0 3 0 2 5 11 13 12 23 225 507 352 469 215 65 131 363 634 510 583 430 237 203 132 86 82 62 14 0 0 0 12 95 280 327 170 148 85 70 32 27
0 0 0 0 4 7 7 13 11 91 122 232 396 366 363 307 120 70 28 75 583 685 582 280 132 103 87 52 38 0 0 0 0 0 0 1 74 140 116 135 105 62 45
3 0 0 2 1 0 0 0 0 6 99 346 411 356 371 376 208 117 115 82 147 172 219 317 150 95 82 47 19 0 0 1 0 0 0 0 0 16 17 66 71 51 31
3 1 1 2 0 3 0 0 0 0 0 119 311 379 319 345 64 81 37 106 71 71 14 201 182 129 120 82 57 0 0 1 1 0 0 0 0 0 0 0 7 6 6
17 11 11 11 3 0 0 2 0 0 2 8 119 155 152 155 174 4 2 2 92 6 71 79 119 125 137 103 75 0 0 1 1 1 1 1 0 0 0 0 0 0 0
14 11 15 6 2 3 3 4 1 1 1 0 28 53 8 76 1 0 35 12 18 193 127 81 37 37 114 98 47 8 0 0 1 1 1 1 1 1 1 0 0 0 0
11 10 8 6 3 6 11 9 5 1 3 10 29 46 0 0 2 0 0 4 92 162 234 97 15 6 26 104 53 2 13 0 0 1 1 1 1 1 1 1 1 1 0
14 13 11 9 6 4 3 4 15 14 15 26 95 25 5 0 0 0 0 4 0 6 145 84 133 0 0 27 64 0 15 4 0 1 1 1 1 1 1 1 1 1 1
10 8 9 9 6 6 5 4 3 2 1 2 1 1 2 0 1 0 1 0 0 0 17 33 119 9 0 1 10 0 1 1 0 0 1 1 1 1 1 1 1 1 1
5 7 7 9 9 5 5 5 5 5 4 4 4 3 4 2 2 1 0 110 4 0 7 84 114 41 0 0 1 8 0 0 0 0 0 0 0 1 1 1 1 1 1
4 1 4 4 6 10 14 5 5 3 3 3 3 3 7 6 3 1 1 1 0 6 156 247 139 40 0 0 0 0 0 0 0 0 0 0 0 0 0 1 0 1 1
0 0 0 1 1 6 19 18 5 5 4 3 3 3 3 3 5 2 2 1 1 0 2 1 75 6 0 1 1 0 0 0 0 2 0 0 1 0 0 0 0 0 1
0 0 0 0 1 2 19 16 11 2 1 1 2 3 4 4 3 4 2 1 1 1 0 2 4 4 2 2 5 2 1 0 0 0 0 0 0 1 0 0 0 0 0
0 0 0 0 3 8 12 12 7 0 0 1 2 2 2 2 5 4 2 0 1 1 1 2 0 0 1 2 5 1 2 1 0 0 0 1 0 1 0 0 1 1 1
0 0 0 0 0 0 18 7 3 1 0 1 0 3 1 0 11 9 1 0 0 0 3 5 8 5 3 2 1 0 0 0 0 0 0 0 0 0 0 0 0 1 1
0 0 0 0 6 0 11 5 1 1 1 2 1 1 13 3 9 7 0 0 0 0 0 0 0 0 1 1 3 0 1 1 1 0 0 0 0 0 0 0 0 0 0

GFSMA_con_sbcape_132.txt.gz
CAPE
1218 1264 1263 1273 1129 1173 1275 1062 954 758 420 361 244 176 157 117 89 73 13 73 421 1280 2211 2099 1878 1607 1577 1294 967 1190 1135 641 471 326 240 236 243 178 73 26 21 59 70
49 1042 1043 1225 1031 1062 1316 1158 897 779 448 249 334 224 193 154 77 64 42 50 59 605 1397 1960 2068 1894 1609 1415 1199 1138 1119 842 689 542 313 135 81 51 1 9 11 39 65
0 0 24 600 859 1137 1149 888 778 459 388 314 272 329 237 167 164 63 53 50 74 31 594 1109 1855 1846 1910 1862 1470 1191 1078 860 736 630 421 187 58 16 0 0 7 21 46
0 0 1 7 2 100 857 873 839 480 469 387 369 325 300 206 161 116 61 87 67 145 79 508 1242 1639 1703 1853 1766 1218 1077 960 727 706 496 238 59 6 0 0 0 7 27
0 0 0 0 31 2 7 200 807 746 525 427 418 406 250 239 196 228 108 79 103 132 228 257 323 901 1315 1470 1829 1595 1220 989 808 714 622 351 114 36 0 0 0 0 9
0 0 1 0 0 1 0 0 82 412 587 746 551 401 301 250 147 196 234 134 107 119 139 174 195 309 645 965 1412 1843 1404 1111 915 773 777 521 218 77 11 5 2 0 6
0 0 0 0 0 0 1 2 0 108 75 375 416 386 290 217 136 222 194 131 135 101 102 152 194 309 327 378 841 1543 1709 1394 1256 1245 1015 637 292 106 34 34 18 8 9
0 0 0 0 0 0 1 4 0 0 4 102 439 303 335 205 118 155 178 166 229 148 91 113 154 211 379 413 634 835 1554 1600 1290 1244 1096 665 372 187 66 40 18 6 17
0 0 0 0 0 0 1 1 5 25 1 70 99 366 142 157 377 229 240 212 225 176 165 114 107 144 247 343 373 384 439 742 965 1101 924 703 415 297 158 80 29 19 28
0 0 0 0 0 0 0 0 0 62 47 0 138 228 344 14 123 150 124 308 252 217 260 172 147 115 125 202 230 335 237 102 232 585 723 671 539 376 241 126 55 22 31
0 0 0 0 1 6 2 3 3 1 1 2 8 58 49 18 33 122 84 149 247 398 322 297 232 174 109 127 164 161 80 23 16 67 292 631 579 381 238 198 87 27 38
3 1 0 0 0 0 2 6 18 4 17 1 0 1 14 34 49 116 84 24 196 283 480 405 248 215 163 116 126 106 19 1 1 0 5 134 350 338 212 170 54 57 45
6 5 3 1 3 0 3 0 1 0 0 6 4 1 29 118 70 150 97 36 37 60 58 225 295 224 180 84 105 24 0 1 1 1 0 0 11 58 96 92 90 53 67
16 15 7 2 2 3 1 0 4 1 0 0 0 4 21 27 213 157 144 133 74 6 1 30 75 143 159 105 115 10 32 1 1 1 1 0 0 0 1 13 20 14 35
16 15 11 11 17 14 11 7 9 2 5 4 19 12 11 64 153 181 88 72 5 0 0 0 15 39 137 131 67 10 4 0 1 1 1 1 0 0 0 0 0 0 0
13 11 14 12 6 2 4 9 9 7 9 4 1 0 17 56 174 168 138 26 0 0 4 0 0 16 79 89 88 23 10 0 1 1 1 1 0 0 0 0 1 0 0
14 12 12 9 7 6 4 8 5 9 11 5 4 11 4 2 136 26 54 11 1 1 2 0 12 4 19 41 47 0 12 0 0 1 1 1 1 1 1 1 1 1 1
18 13 13 10 7 7 6 5 5 7 12 8 2 3 4 38 22 0 0 0 0 0 2 1 0 12 13 2 72 51 28 4 1 1 1 0 1 1 1 1 1 1 1
7 11 10 11 7 6 7 6 7 8 7 6 4 3 2 1 1 2 0 0 0 0 38 41 1 58 2 0 32 59 18 1 0 0 1 1 1 0 1 1 1 1 1
4 8 9 9 8 4 5 5 6 6 6 7 9 9 5 4 3 3 3 2 12 26 12 3 9 0 0 0 4 26 1 0 0 0 0 1 0 0 0 1 1 1 1
5 3 3 4 6 11 15 4 5 5 5 5 5 6 7 14 11 8 7 7 2 2 11 24 13 1 16 4 0 11 43 11 1 0 0 0 0 1 0 0 0 1 0
1 0 1 1 1 12 17 15 3 3 4 3 3 4 4 6 6 6 6 7 7 8 4 2 4 2 2 2 1 1 0 0 0 2 1 0 0 0 0 0 0 1 1
0 1 0 1 1 1 12 10 7 1 0 1 1 3 4 6 3 5 2 2 5 8 3 4 3 2 1 1 1 2 1 2 4 2 3 0 0 0 0 1 0 0 0
0 3 1 0 1 3 4 6 4 1 0 0 0 0 0 2 5 3 2 1 1 3 5 5 4 3 3 1 1 1 1 1 0 0 0 0 0 1 0 0 1 1 0
0 0 1 0 0 0 4 3 1 0 0 1 1 1 2 2 17 11 0 0 0 0 4 11 12 8 5 7 2 0 0 0 0 0 0 0 0 0 0 0 0 1 0
0 0 0 0 3 0 3 2 0 1 0 2 1 2 14 8 11 9 1 0 0 0 0 0 0 0 1 1 5 0 1 0 1 0 0 0 0 0 0 0 0 0 0

GFSMA_con_sbcape_135.txt.gz
CAPE
374 1335 1652 1744 1648 1611 1401 1252 1399 1460 1618 1472 1238 1148 1167 1159 1231 1267 1255 382 36 741 1872 2307 1994 1801 1802 1516 1261 1236 1209 963 842 789 773 584 503 463 371 214 219 131 145
3 0 14 966 1403 1554 1170 936 955 1173 1401 1512 1301 838 1129 1026 1047 1163 997 871 9 134 1107 2031 2441 2256 2124 1822 1254 1178 1174 1080 957 836 598 453 398 342 247 114 56 31 92
0 0 0 3 255 61 113 171 598 977 1259 1003 1119 983 1031 921 903 1005 964 825 469 0 259 914 1540 2040 1897 1770 1386 1161 1148 920 849 827 617 345 243 160 69 41 0 0 61
0 4 2 1 2 9 0 0 0 3 347 605 974 837 803 835 834 1061 905 792 608 871 156 79 672 1136 1454 1702 1736 1272 1252 1081 858 798 639 373 199 76 11 0 0 0 8
0 0 2 5 8 10 8 0 0 0 0 115 482 1016 1089 793 866 897 898 855 781 620 934 372 58 598 1070 1379 1743 1772 1359 1416 1109 948 732 496 253 71 1 0 0 0 0
0 0 0 0 0 0 5 9 1 0 0 14 393 622 1049 922 824 768 947 960 806 728 729 997 920 636 275 1044 1453 1841 1691 1426 1230 1089 985 711 395 97 21 0 0 0 0
0 0 0 0 0 0 0 1 7 12 7 10 214 871 977 929 620 329 506 1152 993 845 730 989 1297 1264 797 287 907 1601 1668 1799 1749 1438 1034 784 487 147 25 0 0 8 1
0 0 0 0 0 0 0 0 2 80 118 323 677 372 474 747 645 440 462 828 1042 1124 859 880 1133 1235 1377 1329 1104 835 1418 1537 1655 1546 1168 714 513 276 74 17 3 0 5
4 4 3 1 2 4 1 2 2 4 32 217 275 93 102 63 503 550 388 433 749 1141 1202 1042 1035 1125 1273 1477 935 654 407 647 1120 1323 1104 731 574 431 192 54 19 1 1
8 7 7 6 3 4 3 0 0 1 4 21 551 236 25 260 192 103 492 523 789 1104 1413 1205 1051 1006 1079 1238 917 766 339 138 228 688 936 927 676 459 345 168 49 22 15
5 4 4 15 12 11 11 9 8 12 13 4 83 509 274 40 99 12 82 366 561 842 1236 1680 1576 1500 1043 1049 1319 998 99 18 33 69 334 739 748 534 429 296 157 80 32
23 14 12 7 16 14 7 13 14 9 6 10 2 63 84 377 54 10 11 54 161 413 955 1554 1315 1424 1186 1050 805 591 57 7 1 1 48 164 391 505 382 339 266 190 115
24 12 22 24 22 12 9 13 8 8 9 13 11 4 46 209 154 71 30 4 51 147 660 1308 1110 1460 1260 1303 875 192 8 1 1 0 0 6 51 184 192 188 192 196 162
28 22 24 19 22 25 23 23 17 13 9 26 10 2 1 58 64 99 143 159 78 131 102 344 1232 980 830 725 569 203 152 1 1 1 1 1 0 3 46 33 51 72 36
34 23 21 18 18 12 17 25 24 18 11 16 20 15 16 3 94 274 205 180 107 59 86 17 23 87 182 224 210 250 219 125 1 1 1 1 0 1 0 0 0 2 0
27 26 21 12 9 10 10 5 10 16 19 21 8 15 4 0 12 122 205 158 105 89 89 0 0 6 21 1 80 265 328 89 0 1 1 1 1 1 1 0 0 0 0
22 26 25 12 7 7 8 6 11 11 9 11 10 7 20 6 0 43 305 161 145 24 30 60 17 53 18 61 129 262 217 143 50 1 1 1 1 1 1 1 1 0 0
16 16 25 13 10 9 8 7 7 7 8 6 8 4 5 1 1 33 68 73 181 188 302 162 182 168 224 139 136 289 139 146 125 16 1 1 1 1 1 1 1 1 1
11 11 13 14 12 11 9 7 7 8 8 10 8 10 8 4 3 6 2 3 11 279 221 327 325 248 392 362 279 237 231 277 193 74 2 0 1 1 1 1 1 1 1
15 13 10 11 12 8 8 9 7 6 6 8 10 10 12 8 7 5 4 3 3 5 108 240 173 264 379 328 365 296 192 141 139 73 4 0 0 0 1 0 1 1 1
16 15 12 8 15 17 17 8 9 7 6 5 6 7 12 17 16 13 9 5 3 9 9 4 24 60 103 56 20 5 52 119 137 56 18 2 1 1 2 0 0 0 0
18 10 15 15 13 17 12 8 7 7 6 5 4 5 6 8 7 7 8 13 10 4 6 6 9 6 5 5 6 5 7 5 15 1 2 0 0 1 2 2 0 1 1
12 13 12 12 11 11 5 6 5 9 11 17 14 7 8 9 6 4 2 2 8 8 7 6 5 5 5 7 5 5 3 2 2 3 2 4 1 0 2 2 1 0 0
17 17 18 15 21 13 3 2 3 17 17 14 23 19 20 15 7 6 3 2 4 6 10 13 9 8 7 6 5 5 6 5 1 0 3 0 0 0 0 1 4 2 1
7 16 16 14 12 15 2 1 2 6 9 17 23 18 18 16 6 5 5 7 5 3 5 8 10 7 3 6 4 0 1 3 7 1 2 3 0 0 0 0 0 2 2
5 11 13 15 6 10 3 1 3 3 5 12 10 22 9 9 6 5 11 10 5 10 12 6 4 5 5 3 4 2 1 2 2 0 5 4 1 3 0 0 1 0 0

GFSMA_con_sbcape_138.txt.gz
CAPE
0 0 160 1299 1951 1958 2033 1931 1840 1957 1888 1739 1673 1769 1736 1743 1498 1140 1154 423 162 696 1805 2145 2002 1948 1988 1601 1390 1412 1313 1182 1179 1144 901 664 529 488 501 497 445 358 371
0 0 0 365 846 1529 1466 1627 1174 1258 1588 1629 1695 1608 1782 1482 1488 1395 1072 1050 358 138 748 1853 2347 2152 2128 1796 1320 1283 1185 1103 1151 1159 930 617 461 383 316 271 298 261 261
0 0 0 4 262 192 664 18 0 5 533 1041 677 1667 1558 1616 1413 1420 1403 972 745 28 111 627 1589 1959 1914 2082 1367 1212 1045 1017 996 1089 965 661 444 338 260 195 124 127 151
0 0 0 0 0 3 42 103 0 0 18 15 0 6 1269 1275 1310 1334 1455 1352 931 683 127 89 497 1205 1424 1706 1680 1512 1289 1097 1021 1018 880 587 444 334 229 142 68 34 43
0 0 0 0 0 0 0 44 162 1 2 0 0 26 24 856 1449 1392 1289 1368 1467 944 694 187 97 362 849 1145 1682 1731 1543 1383 1134 1066 934 678 404 250 160 80 39 4 0
0 0 0 0 0 0 0 0 12 101 86 7 5 4 0 2 988 1192 1478 1583 1426 1414 1395 667 1029 646 67 648 1117 1675 1664 1421 1243 1168 1043 857 555 237 96 42 16 0 0
0 0 0 0 0 0 0 0 0 4 55 127 9 25 197 475 1187 1163 1512 1727 1478 1362 1512 1362 1204 1179 757 93 615 1377 2000 1736 1697 1436 1135 882 601 261 106 33 0 0 5
4 3 2 1 0 0 0 2 2 0 0 160 198 435 321 303 862 1205 1407 1445 1428 1411 1396 1349 1226 985 1163 1416 1069 710 1496 1843 1665 1365 1094 794 581 364 162 76 23 0 0
7 11 12 10 8 7 3 3 5 4 0 49 524 351 219 96 289 734 1514 1166 1503 1518 1581 1356 1277 1247 1209 1465 1363 624 470 794 1179 1242 1061 836 578 464 308 162 73 29 0
10 13 10 9 11 15 15 9 4 7 3 0 83 483 970 557 223 457 749 1412 1413 1370 1617 1648 1437 1321 1248 1630 1270 1279 264 124 240 741 900 820 717 543 442 282 146 64 28
11 7 13 10 5 27 7 9 15 23 16 5 1 48 576 893 977 686 461 752 1412 1166 1360 1564 1814 1546 1636 1716 1997 1515 253 37 50 126 523 782 777 644 511 442 237 115 73
14 16 20 35 27 26 26 26 9 16 17 23 6 20 54 54 509 664 616 791 746 1027 1210 1423 1651 2032 1458 1784 1251 885 185 27 0 15 105 307 518 570 558 501 397 264 122
16 24 22 27 21 16 25 32 38 29 14 21 18 27 34 17 10 610 740 748 637 404 337 506 1041 1318 1267 1630 1706 917 170 0 1 1 1 16 99 244 286 319 338 346 230
23 24 28 23 18 16 22 23 27 25 20 23 13 28 24 22 15 5 852 605 594 376 204 108 356 1094 1078 1516 1644 683 872 24 1 1 1 0 0 3 40 102 130 180 170
29 29 31 23 17 16 15 18 20 21 28 24 18 19 28 50 48 53 195 228 702 376 194 45 34 121 451 1102 1260 1338 1144 138 2 1 1 1 1 0 0 0 0 17 44
27 19 33 30 22 12 7 12 13 8 27 30 23 22 32 27 33 19 0 339 176 99 55 19 47 46 150 175 17 199 414 210 15 1 1 1 1 1 1 1 1 0 0
18 18 30 20 20 15 9 10 9 2 5 4 2 2 1 0 29 70 19 0 257 476 251 142 172 159 67 41 44 67 92 141 179 1 1 1 1 1 1 1 1 1 0
23 16 28 17 11 10 12 11 11 11 10 9 7 5 3 1 2 2 6 4 4 2 184 324 186 176 74 128 77 101 87 225 486 90 1 1 1 1 1 1 1 1 1
19 19 19 17 14 12 11 12 13 11 11 13 14 13 10 6 6 4 3 2 3 4 2 130 86 70 15 106 108 202 186 262 188 141 2 1 1 1 0 1 1 1 1
9 13 26 29 17 12 11 11 10 10 10 11 13 14 16 14 11 7 5 3 2 2 1 1 6 94 70 4 4 63 137 370 364 190 107 0 0 0 1 1 1 0 1
9 9 6 10 20 23 21 15 15 8 9 8 9 9 15 20 20 16 10 7 2 2 3 2 3 6 4 5 4 8 8 2 2 7 0 148 0 3 2 0 0 0 2
9 9 23 22 22 32 5 8 13 25 18 13 16 14 10 11 12 12 12 10 13 7 2 6 3 3 5 6 5 8 10 5 8 1 2 1 1 7 4 3 0 0 0
8 12 20 22 20 11 3 5 5 29 24 22 18 19 17 16 8 9 6 7 11 9 6 6 5 10 8 6 6 6 6 9 8 8 1 5 2 2 3 5 4 3 1
9 12 16 22 16 15 1 1 2 10 27 25 26 24 22 25 23 13 10 21 19 14 17 22 17 16 20 14 10 4 2 2 6 2 3 3 0 4 0 1 4 3 1
11 9 12 11 20 19 1 1 1 4 5 7 16 21 19 18 4 5 7 4 11 23 14 4 6 6 6 5 9 4 5 2 4 6 10 5 7 11 0 0 0 5 4
11 10 9 10 8 16 1 2 3 1 3 2 5 5 2 6 2 2 9 8 5 9 7 8 15 17 14 19 7 25 26 12 8 1 8 3 5 5 2 0 0 0 0

GFSMA_con_sbcape_141.txt.gz
CAPE
0 0 0 342 1236 1595 1393 1973 1878 2045 1898 1358 1453 2002 1986 1628 1495 1643 844 182 394 1278 2020 2399 2235 2123 1929 1504 1260 1442 1512 1337 1331 1297 1056 839 698 634 575 491 418 469 532
0 0 0 0 169 621 960 1033 289 860 1399 1377 1745 1684 1249 1300 1810 1508 1060 180 124 311 989 2084 2582 2481 2243 1840 1335 1343 1284 1283 1253 1296 1093 787 583 497 446 405 371 357 438
0 0 0 0 0 4 180 630 879 211 0 10 54 49 216 13 259 1253 1524 1270 312 113 257 702 1680 1946 2159 2133 1577 1365 1268 994 1108 1208 1066 774 571 429 313 271 287 294 324
0 0 0 0 0 0 0 1 378 129 0 0 70 24 17 17 0 230 1454 1800 1324 1100 134 220 480 1283 1674 1934 1937 1657 1480 1127 1052 1062 1029 808 590 456 337 219 174 180 221
0 0 0 0 0 0 0 0 0 408 147 3 0 0 45 0 8 193 916 955 1309 1208 1444 253 144 357 886 1247 1795 1983 1803 1459 1146 1042 1051 845 672 479 313 223 163 122 96
0 0 0 0 0 0 0 0 0 0 57 155 9 2 30 30 0 576 566 462 1132 1365 1306 1381 164 282 180 707 1165 1884 2074 1786 1428 1278 1124 890 674 459 284 175 127 89 53
1 4 2 1 0 0 0 0 0 0 0 31 171 68 78 92 193 215 593 454 876 1199 1236 1488 1300 1256 375 145 574 1349 1871 2175 1924 1549 1185 919 640 336 187 111 84 55 42
5 5 8 9 8 7 5 3 2 4 4 0 9 190 67 140 189 204 301 653 1185 1249 1325 1622 1407 1247 1469 761 863 604 1364 1801 1913 1716 1207 755 585 380 212 111 56 24 22
8 9 9 10 15 25 17 15 9 8 6 5 41 113 135 117 229 607 770 804 1221 1518 1423 1764 1833 1557 1182 1262 992 357 406 874 1240 1487 1254 838 567 471 317 186 91 35 19
9 13 14 21 21 13 10 8 5 20 30 11 5 28 429 506 446 322 682 1059 1453 1334 1672 1839 1810 1910 1457 1287 1248 1089 121 198 487 963 1135 990 748 549 426 302 163 97 39
12 6 26 30 30 29 29 24 17 7 6 4 10 5 76 221 544 484 513 601 1137 1224 1278 1732 1665 1840 1665 1141 1403 1186 121 38 32 293 771 967 827 664 493 336 228 178 105
26 21 16 26 27 23 20 28 27 21 11 7 6 12 20 46 53 365 483 584 730 1190 1388 1418 1590 1847 1860 1665 1115 1033 124 0 0 22 197 513 689 681 542 458 364 306 185
30 20 26 31 28 24 31 36 21 23 28 27 19 20 18 9 12 15 16 95 561 729 887 1072 1330 1776 1682 1831 1452 807 97 0 0 0 9 83 168 351 418 410 388 363 253
32 23 30 26 23 19 21 26 21 26 16 26 29 19 19 18 18 9 24 36 239 203 552 440 981 1293 1540 1765 1544 1031 714 0 0 1 1 1 2 23 64 160 212 262 280
25 20 29 22 28 33 22 13 22 18 27 30 26 27 26 28 48 45 44 45 49 101 126 656 625 757 1006 1228 1253 1343 891 103 1 1 1 1 1 1 1 8 18 53 113
27 21 30 24 21 23 13 17 11 3 5 13 24 21 23 22 37 40 80 127 360 247 48 363 439 591 467 344 168 302 407 15 1 1 1 1 1 1 1 1 1 0 5
30 33 21 19 15 15 13 14 14 8 7 6 5 4 3 1 8 31 83 100 208 175 76 22 457 400 537 314 132 94 44 30 15 23 1 1 1 1 1 1 1 1 1
27 27 29 14 14 14 12 9 9 11 10 10 11 9 6 3 3 2 3 2 7 9 17 5 1 200 166 160 121 84 100 35 64 21 3 0 1 1 1 1 1 1 1
16 15 16 18 14 11 13 11 11 10 10 10 10 13 11 9 7 7 4 5 5 5 7 5 1 3 93 2 4 126 82 103 23 27 15 0 1 1 1 1 1 1 1
9 5 17 18 13 13 14 17 13 11 13 12 11 11 12 12 11 9 8 4 1 4 3 3 3 2 2 2 3 2 0 4 1 0 0 0 0 1 1 1 1 0 1
12 11 5 6 7 10 13 11 16 14 14 13 13 8 11 21 14 15 11 7 7 5 6 4 3 4 4 2 0 1 5 2 2 1 7 11 3 7 4 2 2 2 1
12 24 20 15 25 31 4 3 5 11 9 12 14 12 7 4 15 16 11 10 15 7 8 6 9 7 10 5 4 3 3 4 4 0 0 5 4 3 5 5 4 3 2
14 18 22 23 24 18 6 6 4 20 13 10 9 12 12 11 5 14 9 8 10 8 6 12 12 11 9 10 7 8 5 6 3 3 1 5 0 4 2 4 6 4 3
12 14 17 19 17 17 4 4 4 20 18 13 10 8 11 9 7 8 9 12 15 15 16 20 22 21 13 9 6 14 12 4 2 1 3 4 3 4 4 3 4 4 4
11 16 8 9 14 14 4 2 15 27 19 19 15 8 6 6 2 4 5 7 16 15 13 6 7 6 5 5 7 12 7 11 7 9 8 5 10 9 5 3 3 2 1
15 22 12 7 3 12 1 3 8 10 15 12 10 20 4 4 2 2 8 10 10 22 20 17 18 16 12 12 4 15 24 14 8 7 17 9 19 15 5 7 2 1 6

GFSMA_con_sbcape_144.txt.gz
CAPE
0 0 0 0 0 211 1405 1493 1007 570 429 506 684 855 930 886 891 746 374 377 459 932 1867 2351 2043 2113 2005 1531 1308 1350 1338 1318 1312 1273 1029 824 761 725 680 555 575 712 709
0 0 0 0 0 0 0 402 547 414 104 335 316 445 325 269 74 77 250 46 113 245 926 1615 2568 2194 2233 1870 1316 1270 1249 1229 1226 1242 1018 784 607 545 421 358 288 427 575
0 0 0 0 0 0 0 0 3 670 320 17 41 0 234 209 56 0 0 3 106 25 257 1267 1743 2132 2231 2146 1565 1304 1243 1040 1086 1184 1055 776 557 434 338 255 243 255 362
0 0 0 0 0 0 0 0 0 0 78 35 0 11 111 8 95 5 0 0 0 229 242 149 1124 1639 1717 1958 2016 1684 1527 1111 982 1015 1025 788 571 418 308 228 207 214 244
0 0 0 0 0 0 0 0 0 0 0 21 28 0 20 67 10 0 0 0 0 233 562 167 179 547 1308 1496 1948 2058 1918 1521 1137 1074 944 816 614 427 314 228 184 175 178
0 0 3 0 0 0 0 0 0 0 0 0 0 0 0 0 0 0 0 0 0 124 609 717 47 77 198 913 1361 2063 2211 2066 1618 1303 1052 893 705 462 305 253 214 172 137
0 0 0 0 0 0 0 0 0 0 0 0 0 0 10 35 17 0 0 0 0 57 46 462 353 137 131 153 778 1605 2237 2299 2007 1615 1108 887 653 432 289 220 197 151 118
0 0 0 4 7 3 0 0 2 5 0 0 0 0 1 6 28 10 115 72 272 227 152 418 745 658 402 153 211 840 1659 2039 1979 1716 1009 743 608 462 307 236 186 139 101
0 1 4 6 6 16 15 7 0 0 2 1 1 12 20 5 24 94 59 66 90 225 295 358 720 820 751 761 176 185 430 925 1434 1545 1204 812 601 473 342 244 178 135 98
9 12 18 17 14 4 5 18 3 2 6 4 0 0 1 1 1 75 182 275 172 102 264 467 455 647 941 716 631 231 77 77 383 1095 1258 1030 731 573 445 288 193 150 118
14 14 18 15 8 15 14 17 5 18 7 8 9 0 0 0 0 112 84 23 60 386 442 541 693 709 1023 1079 759 551 57 5 53 348 827 1067 862 639 509 397 262 201 149
15 17 17 19 19 18 20 14 19 30 28 17 10 5 4 6 1 2 46 30 67 140 376 464 446 613 652 904 915 791 13 0 1 75 332 655 797 698 546 449 348 323 251
21 20 18 21 24 22 25 18 16 15 21 20 24 16 2 2 6 11 11 5 5 1 62 455 672 573 660 604 776 435 3 0 0 0 48 225 383 488 492 460 430 339 257
23 25 22 22 21 23 29 22 15 14 18 19 11 25 26 7 3 7 14 12 2 1 2 38 175 757 597 677 468 568 94 0 0 0 0 21 90 156 187 229 274 245 221
28 28 18 22 22 17 19 21 17 9 2 5 17 25 28 25 10 4 4 19 18 19 2 0 124 182 486 655 687 480 325 19 0 1 1 1 1 14 11 19 43 92 130
15 21 24 17 14 19 14 17 15 10 7 6 8 3 2 3 10 18 18 17 29 5 16 1 64 99 135 137 298 147 241 33 1 0 1 1 1 1 1 1 1 1 6
16 19 20 15 11 13 10 11 11 8 9 9 8 6 4 1 3 4 4 5 23 13 30 25 71 55 0 0 0 38 45 27 1 1 1 1 0 1 1 1 1 1 1
15 18 16 10 8 8 12 7 11 9 7 7 9 6 7 4 2 3 4 1 5 0 10 55 54 1 0 0 0 3 13 4 7 0 0 1 2 1 1 1 1 1 1
4 5 8 9 6 8 8 7 8 10 8 7 8 9 8 7 5 5 4 3 1 4 3 4 3 2 2 2 1 1 2 3 0 0 2 1 0 0 1 0 0 0 1
3 5 2 4 5 2 3 6 7 6 6 6 5 5 4 9 8 5 5 3 3 2 1 4 3 4 4 5 2 4 1 3 1 0 2 0 3 5 5 3 2 2 2
4 7 4 1 2 3 3 0 4 3 2 2 3 2 3 19 29 19 9 3 3 3 3 3 4 3 4 2 3 4 4 2 3 0 1 3 6 6 6 4 4 3 3
1 0 2 0 0 8 7 5 2 3 3 3 3 2 1 2 3 10 19 14 10 3 5 5 5 5 4 3 2 4 2 3 2 0 0 2 3 3 4 3 6 5 6
0 0 0 0 0 0 9 7 2 0 0 0 0 2 4 3 1 3 4 6 10 6 5 4 4 5 4 3 3 2 2 2 3 1 1 3 0 0 1 4 7 8 6
0 0 0 0 0 0 6 7 3 0 0 0 0 0 0 0 0 1 2 0 0 0 0 0 0 0 0 0 1 3 1 2 1 0 0 1 1 1 0 1 2 2 1
0 0 0 0 0 0 4 3 0 0 0 0 0 0 0 0 4 5 0 0 0 0 4 7 5 5 2 3 0 0 0 0 4 0 0 0 2 0 0 0 0 0 0
1 0 0 0 0 0 4 3 0 0 0 0 0 0 4 0 3 3 0 0 0 0 0 0 0 0 0 0 0 0 0 0 0 0 0 0 1 1 0 0 0 0 0

GFSMA_con_sbcape_147.txt.gz
CAPE
0 0 0 0 0 0 0 0 0 179 80 34 183 168 556 481 486 527 138 122 181 721 1521 1959 1770 1834 1921 1594 1311 1348 1316 1070 1295 1276 1007 821 742 802 837 775 668 628 607
0 0 0 0 0 0 0 0 0 0 0 58 73 119 280 50 3 200 300 150 208 44 464 1009 1682 1707 1911 1635 1351 1288 1250 1185 1243 1248 990 705 622 619 624 602 547 525 558
0 0 0 0 0 0 0 0 0 0 0 0 1 42 31 84 193 110 92 115 185 190 90 334 273 255 1522 1593 1400 1336 1240 1034 1093 1117 956 684 534 483 428 365 301 430 540
0 0 0 0 0 0 0 0 0 0 0 0 0 1 3 0 29 8 82 64 115 258 47 138 38 65 183 1146 1559 1582 1555 1187 1050 1038 874 660 533 419 350 253 190 199 354
0 0 0 0 0 0 0 0 0 0 0 0 0 0 1 0 0 10 45 0 0 28 24 0 0 0 16 467 1429 1941 1918 1592 1265 1180 938 700 545 415 325 253 191 169 192
0 0 0 0 0 0 0 0 0 0 0 0 0 0 0 0 0 0 0 0 0 0 48 1 0 0 0 145 1128 2029 2143 2068 1729 1449 1202 896 612 411 296 259 237 198 178
0 0 0 0 0 0 0 0 0 0 0 0 0 0 0 0 0 13 0 0 0 0 8 199 458 136 143 23 610 1709 2069 2351 2031 1667 1263 937 646 374 257 222 211 197 188
0 0 0 0 1 7 14 12 0 0 0 0 7 0 0 0 0 0 14 14 13 3 0 20 163 358 238 75 112 743 1823 2245 2121 1763 1277 806 563 393 250 229 222 194 184
0 0 0 10 8 10 12 10 12 7 1 3 0 10 16 3 0 0 0 21 73 52 151 137 121 220 406 297 82 59 325 684 1630 1746 1376 878 548 423 310 254 228 213 188
0 0 11 12 6 9 11 13 17 22 16 18 2 0 1 4 10 0 0 17 70 85 76 181 273 240 524 391 271 131 82 63 189 911 1289 1110 683 516 374 298 244 218 204
0 5 8 7 7 13 15 19 17 20 27 30 24 14 6 5 0 17 1 0 0 94 159 85 231 357 450 366 421 341 18 0 16 136 706 1048 853 607 457 356 291 249 204
2 1 7 7 12 13 17 17 17 18 17 16 32 30 18 18 5 9 8 0 1 0 0 2 209 258 292 325 470 501 50 0 0 6 225 502 781 685 466 417 364 311 255
1 5 7 4 10 14 19 21 16 13 16 15 14 17 21 31 12 9 10 7 12 3 1 0 8 118 300 287 302 344 96 0 0 0 2 74 248 422 368 300 283 270 299
11 12 17 3 6 21 16 22 30 9 13 11 15 15 24 27 35 17 21 15 5 0 1 0 0 0 79 263 341 280 31 18 0 1 1 0 14 82 201 193 192 178 216
15 11 9 8 8 20 15 22 14 12 8 9 15 12 20 20 33 20 12 12 13 7 0 0 0 9 64 13 0 0 78 214 2 1 1 1 1 1 11 58 51 64 86
10 11 10 6 6 13 8 20 11 13 11 8 10 10 4 4 2 1 15 33 13 2 3 15 0 0 0 0 0 0 1 1 0 0 0 1 1 1 1 1 1 1 5
7 7 13 10 7 6 6 6 11 8 6 6 10 8 8 13 5 2 2 4 5 12 38 21 7 0 0 1 0 0 1 2 8 2 1 0 0 1 1 0 0 1 1
3 0 2 7 6 5 7 5 4 7 5 3 5 7 8 9 5 3 3 3 1 4 5 50 1 2 2 0 1 5 7 3 2 5 4 3 5 2 1 1 0 1 0
1 0 0 0 1 1 2 3 4 4 4 3 3 2 13 7 6 6 5 4 4 2 4 2 3 1 4 1 2 0 7 6 7 4 1 2 5 6 7 7 6 4 2
1 0 0 0 0 0 0 0 1 0 1 1 2 1 2 11 6 6 5 5 5 3 2 3 5 4 3 2 4 4 3 2 2 1 5 3 3 3 5 5 7 6 7
0 0 0 0 0 1 1 0 0 0 0 0 0 1 1 14 34 25 7 2 2 3 4 3 4 3 3 2 4 4 3 3 2 1 5 4 6 3 5 3 5 8 7
0 0 0 0 0 11 10 2 0 0 0 0 0 0 0 1 2 15 15 11 9 2 5 5 6 4 3 2 2 3 4 0 0 0 1 3 5 2 2 2 9 9 7
0 0 0 0 0 0 10 11 1 0 0 0 0 0 2 2 0 3 5 6 11 11 10 4 4 4 3 2 3 1 1 1 0 0 1 5 0 2 2 4 9 9 8
0 0 0 0 0 0 5 5 3 0 0 0 0 0 0 0 0 0 0 0 0 0 0 2 0 0 0 0 0 0 0 2 0 0 0 3 0 0 0 0 5 8 9
0 0 0 0 0 0 3 1 0 0 0 0 0 0 0 0 3 3 0 0 0 0 1 4 2 2 0 1 0 0 0 0 0 0 0 0 0 0 0 0 0 0 4
0 0 0 0 0 0 3 4 0 0 0 0 0 0 5 0 5 4 0 0 0 0 0 0 0 0 0 0 0 0 0 0 0 0 0 0 0 0 0 0 0 0 0

GFSMA_con_sbcape_150.txt.gz
CAPE
0 0 0 0 0 0 0 0 0 0 0 0 0 38 138 470 854 632 284 49 197 371 519 503 1502 1548 1300 1281 1057 1172 1346 1348 1098 1276 1015 845 778 763 765 732 762 690 655
0 0 0 0 0 0 0 0 0 0 0 0 0 0 1 62 158 318 328 166 259 223 136 414 498 1379 1389 1632 1115 1204 1276 1365 1105 1107 1055 764 696 664 635 619 556 530 538
0 0 0 0 0 0 0 0 0 0 0 0 0 0 0 2 5 2 79 56 46 0 2 53 375 512 1479 1780 1580 1269 1269 1267 1149 1239 950 753 622 553 528 495 469 421 460
0 0 0 0 0 0 0 0 0 0 0 0 0 0 0 0 3 114 114 193 47 0 0 0 44 398 689 1723 2003 1694 1529 1283 1156 1126 950 716 596 510 455 413 395 350 387
0 0 0 0 0 0 0 0 0 0 0 0 0 0 0 0 0 14 54 152 101 121 38 54 0 20 237 556 1571 1595 1786 1553 1325 1192 886 780 602 487 416 354 300 305 309
0 0 0 0 0 0 0 0 0 0 0 0 0 0 0 0 0 0 0 89 85 46 49 88 24 0 0 31 373 1256 1589 1907 1696 1473 1220 924 668 464 371 317 271 218 259
0 0 0 0 3 5 7 8 2 0 0 0 1 0 0 0 0 0 0 20 47 12 0 37 47 0 0 0 9 357 1332 2005 1919 1593 1267 931 630 423 327 292 247 205 188
0 0 0 1 3 2 5 12 11 17 7 2 0 20 0 0 0 0 0 0 35 22 0 0 0 58 49 3 3 26 452 1253 1959 1783 1400 904 696 451 339 300 260 222 189
0 0 1 0 0 3 6 10 14 8 20 13 9 19 18 13 0 0 0 0 23 37 16 0 0 25 350 325 180 52 42 237 710 1053 1253 1015 775 572 393 322 266 232 216
0 0 4 0 1 7 12 14 16 16 18 15 19 3 6 12 26 0 0 0 0 52 79 150 140 63 129 261 358 244 124 3 78 771 708 1042 680 550 527 365 293 246 216
0 2 7 0 1 17 13 17 13 13 16 19 12 20 14 11 16 36 4 0 0 0 0 0 36 214 374 396 534 381 48 0 0 102 671 808 708 608 547 425 342 284 236
1 8 10 1 3 3 17 15 12 14 13 15 20 13 16 21 13 10 42 4 0 0 0 0 0 0 9 157 182 338 97 0 0 0 16 200 556 670 520 457 345 379 304
7 10 5 4 6 11 16 18 25 20 17 15 16 18 19 21 18 13 22 13 9 1 0 0 0 0 4 107 2 0 0 1 1 1 0 0 48 189 294 367 395 434 387
11 11 8 4 4 14 6 15 17 13 22 6 15 21 16 16 22 26 32 25 6 2 0 8 0 0 8 6 0 0 2 1 2 1 1 1 1 1 3 81 179 226 272
9 10 7 6 4 7 4 8 10 7 8 11 15 14 9 6 7 28 27 27 23 7 3 2 8 0 0 1 0 3 3 2 1 0 0 0 1 1 1 1 1 33 80
0 0 7 5 5 6 4 4 6 6 7 6 12 9 11 16 9 3 3 14 47 34 15 41 1 0 0 0 0 6 6 1 4 1 1 1 1 1 1 1 1 1 1
0 0 2 3 1 4 4 3 2 3 2 2 1 11 8 14 13 10 3 3 5 4 33 15 3 3 0 1 1 6 7 7 7 7 3 1 1 4 7 4 2 2 2
0 0 0 5 0 0 2 4 3 3 1 0 1 4 8 14 6 6 12 4 4 5 4 30 1 3 1 0 0 5 5 11 13 12 7 7 7 4 3 4 5 5 3
0 0 0 0 0 0 0 2 2 2 2 1 1 1 6 5 5 5 5 5 5 3 4 2 3 2 4 2 1 3 1 2 3 9 11 9 5 8 8 5 5 6 4
0 0 0 0 1 0 0 1 2 0 0 0 1 2 0 9 6 3 4 4 4 3 3 3 4 3 3 2 3 3 5 0 1 0 5 8 6 10 10 7 8 9 9
0 0 0 0 6 0 1 0 0 0 0 0 0 2 5 12 20 24 4 2 2 2 2 2 3 1 2 1 3 4 1 4 0 1 2 1 7 5 7 7 9 6 8
0 0 0 0 0 4 1 1 0 0 0 0 0 0 0 3 5 13 14 9 4 1 3 4 4 5 3 2 2 2 0 0 0 0 1 0 1 7 9 6 12 12 7
0 0 0 0 0 0 2 1 0 0 0 0 0 0 1 2 0 2 3 4 7 8 6 3 4 4 2 2 2 0 3 0 0 0 0 0 0 0 14 4 5 5 7
0 0 0 0 0 0 1 0 0 0 0 0 0 0 0 0 0 0 0 0 0 0 0 1 0 0 0 0 0 0 0 1 0 0 0 0 0 0 0 0 3 4 11
0 0 0 0 0 0 2 0 0 0 0 0 0 0 0 0 2 1 0 0 0 0 0 3 2 1 1 1 0 0 0 0 0 0 0 0 0 0 0 0 0 0 3
0 0 0 0 0 0 6 3 0 0 0 0 0 0 3 0 4 1 0 0 0 0 0 0 0 0 0 0 0 0 0 0 0 0 0 0 0 0 0 0 0 0 0